| time (UTC) | temp F | wind direction | speed MPH | gust MPH | rain 1hr in | rain 24hr in | rain mn in | humidity % | barometer mb |
| 20260502164106 | 66 | 104 | 5.0 | 12.0 | 0.00 | 0.00 | 0.00 | 85 | 1016.0 |
| 20260502164008 | 66 | 58 | 5.0 | 12.0 | 0.00 | 0.00 | 0.00 | 85 | 1016.1 |
| 20260502163907 | 66 | 89 | 5.0 | 12.0 | 0.00 | 0.00 | 0.00 | 85 | 1016.1 |
| 20260502163808 | 66 | 107 | 5.0 | 12.0 | 0.00 | 0.00 | 0.00 | 85 | 1016.1 |
| 20260502163606 | 66 | 335 | 5.0 | 12.0 | 0.00 | 0.00 | 0.00 | 85 | 1016.0 |
| 20260502163406 | 66 | 135 | 4.0 | 12.0 | 0.00 | 0.00 | 0.00 | 85 | 1016.0 |
| 20260502163308 | 66 | 132 | 5.0 | 12.0 | 0.00 | 0.00 | 0.00 | 85 | 1016.0 |
| 20260502163108 | 66 | 151 | 5.0 | 12.0 | 0.00 | 0.00 | 0.00 | 85 | 1016.1 |
| 20260502163009 | 66 | 85 | 5.0 | 12.0 | 0.00 | 0.00 | 0.00 | 85 | 1016.0 |
| 20260502162906 | 66 | 157 | 5.0 | 12.0 | 0.00 | 0.00 | 0.00 | 85 | 1015.9 |
| 20260502162806 | 66 | 109 | 4.0 | 12.0 | 0.00 | 0.00 | 0.00 | 85 | 1015.9 |
| 20260502162705 | 66 | 107 | 4.0 | 12.0 | 0.00 | 0.00 | 0.00 | 85 | 1015.9 |
| 20260502162608 | 66 | 85 | 5.0 | 12.0 | 0.00 | 0.00 | 0.00 | 85 | 1015.8 |
| 20260502162507 | 66 | 89 | 5.0 | 14.0 | 0.00 | 0.00 | 0.00 | 85 | 1015.9 |
| 20260502162305 | 66 | 255 | 5.0 | 14.0 | 0.00 | 0.00 | 0.00 | 85 | 1015.9 |
| 20260502162010 | 66 | 355 | 5.0 | 14.0 | 0.00 | 0.00 | 0.00 | 85 | 1016.0 |
| 20260502161906 | 66 | 112 | 5.0 | 14.0 | 0.00 | 0.00 | 0.00 | 85 | 1016.0 |
| 20260502161807 | 66 | 164 | 5.0 | 14.0 | 0.00 | 0.00 | 0.00 | 85 | 1016.0 |
| 20260502161706 | 66 | 82 | 5.0 | 14.0 | 0.00 | 0.00 | 0.00 | 85 | 1016.0 |
| 20260502161507 | 66 | 108 | 5.0 | 12.0 | 0.00 | 0.00 | 0.00 | 85 | 1016.0 |
| 20260502161406 | 66 | 101 | 5.0 | 12.0 | 0.00 | 0.00 | 0.00 | 85 | 1015.9 |
| 20260502161206 | 66 | 131 | 4.0 | 12.0 | 0.00 | 0.00 | 0.00 | 85 | 1015.9 |
| 20260502161106 | 66 | 57 | 4.0 | 10.0 | 0.00 | 0.00 | 0.00 | 85 | 1016.0 |
| 20260502161011 | 66 | 153 | 4.0 | 10.0 | 0.00 | 0.00 | 0.00 | 85 | 1015.9 |
| 20260502160905 | 66 | 77 | 4.0 | 13.0 | 0.00 | 0.00 | 0.00 | 85 | 1015.9 |
| 20260502160806 | 66 | 102 | 4.0 | 13.0 | 0.00 | 0.00 | 0.00 | 85 | 1015.9 |
| 20260502160607 | 66 | 335 | 4.0 | 13.0 | 0.00 | 0.00 | 0.00 | 85 | 1016.0 |
| 20260502160511 | 66 | 117 | 5.0 | 13.0 | 0.00 | 0.00 | 0.00 | 85 | 1016.0 |
| 20260502160407 | 66 | 116 | 5.0 | 13.0 | 0.00 | 0.00 | 0.00 | 85 | 1016.1 |
| 20260502160307 | 66 | 88 | 5.0 | 13.0 | 0.00 | 0.00 | 0.00 | 85 | 1016.3 |
| 20260502160206 | 66 | 137 | 6.0 | 13.0 | 0.00 | 0.00 | 0.00 | 85 | 1016.3 |
| 20260502152106 | 67 | 199 | 5.0 | 13.0 | 0.00 | 0.00 | 0.00 | 84 | 1016.4 |
| 20260502152008 | 67 | 164 | 5.0 | 13.0 | 0.00 | 0.00 | 0.00 | 84 | 1016.5 |
| 20260502151806 | 67 | 105 | 5.0 | 13.0 | 0.00 | 0.00 | 0.00 | 84 | 1016.6 |
| 20260502151705 | 67 | 210 | 5.0 | 13.0 | 0.00 | 0.00 | 0.00 | 83 | 1016.7 |
| 20260502151606 | 67 | 114 | 5.0 | 13.0 | 0.00 | 0.00 | 0.00 | 83 | 1016.6 |
| 20260502151507 | 67 | 127 | 4.0 | 13.0 | 0.00 | 0.00 | 0.00 | 83 | 1016.8 |
| 20260502151405 | 67 | 104 | 4.0 | 12.0 | 0.00 | 0.00 | 0.00 | 84 | 1016.7 |
| 20260502151305 | 67 | 170 | 4.0 | 10.0 | 0.00 | 0.00 | 0.00 | 84 | 1016.8 |
| 20260502151205 | 67 | 104 | 4.0 | 10.0 | 0.00 | 0.00 | 0.00 | 84 | 1016.8 |
| 20260502151106 | 67 | 85 | 4.0 | 10.0 | 0.00 | 0.00 | 0.00 | 84 | 1016.8 |
| 20260502151008 | 67 | 140 | 5.0 | 10.0 | 0.00 | 0.00 | 0.00 | 84 | 1016.8 |
| 20260502150906 | 67 | 25 | 5.0 | 10.0 | 0.00 | 0.00 | 0.00 | 83 | 1016.9 |
| 20260502150705 | 67 | 347 | 5.0 | 10.0 | 0.00 | 0.00 | 0.00 | 84 | 1016.7 |
| 20260502150509 | 67 | 122 | 5.0 | 10.0 | 0.00 | 0.00 | 0.00 | 84 | 1016.7 |
| 20260502150404 | 67 | 65 | 5.0 | 10.0 | 0.00 | 0.00 | 0.00 | 84 | 1016.8 |
| 20260502150305 | 67 | 149 | 5.0 | 10.0 | 0.00 | 0.00 | 0.00 | 84 | 1016.8 |
| 20260502150106 | 67 | 127 | 5.0 | 10.0 | 0.00 | 0.00 | 0.00 | 84 | 1016.9 |
| 20260502140106 | 66 | 93 | 6.0 | 15.0 | 0.00 | 0.00 | 0.00 | 84 | 1017.7 |
| 20260502130705 | 66 | 60 | 5.0 | 13.0 | 0.00 | 0.00 | 0.00 | 85 | 1018.1 |
| 20260502130606 | 66 | 78 | 5.0 | 13.0 | 0.00 | 0.00 | 0.00 | 85 | 1018.2 |
| 20260502130306 | 66 | 77 | 5.0 | 13.0 | 0.00 | 0.00 | 0.00 | 85 | 1018.2 |
| 20260502130205 | 66 | 68 | 5.0 | 13.0 | 0.00 | 0.00 | 0.00 | 85 | 1018.3 |
| 20260502123807 | 66 | 79 | 4.0 | 11.0 | 0.00 | 0.00 | 0.00 | 85 | 1018.3 |
| 20260502123705 | 66 | 104 | 4.0 | 10.0 | 0.00 | 0.00 | 0.00 | 85 | 1018.3 |
| 20260502123405 | 66 | 86 | 4.0 | 10.0 | 0.00 | 0.00 | 0.00 | 85 | 1018.3 |
| 20260502123206 | 66 | 104 | 5.0 | 11.0 | 0.00 | 0.00 | 0.00 | 86 | 1018.4 |
| 20260502123009 | 66 | 105 | 5.0 | 11.0 | 0.00 | 0.00 | 0.00 | 86 | 1018.4 |
| 20260502122905 | 66 | 109 | 6.0 | 11.0 | 0.00 | 0.00 | 0.00 | 86 | 1018.4 |
| 20260502122806 | 66 | 33 | 6.0 | 11.0 | 0.00 | 0.00 | 0.00 | 87 | 1018.5 |
| 20260502122706 | 66 | 79 | 6.0 | 11.0 | 0.00 | 0.00 | 0.00 | 86 | 1018.4 |
| 20260502122604 | 66 | 148 | 6.0 | 11.0 | 0.00 | 0.00 | 0.00 | 86 | 1018.4 |
| 20260502122507 | 66 | 91 | 6.0 | 11.0 | 0.00 | 0.00 | 0.00 | 86 | 1018.4 |
| 20260502122405 | 66 | 106 | 6.0 | 11.0 | 0.00 | 0.00 | 0.00 | 86 | 1018.4 |
| 20260502122306 | 66 | 41 | 6.0 | 11.0 | 0.00 | 0.00 | 0.00 | 86 | 1018.4 |
| 20260502122207 | 66 | 91 | 6.0 | 12.0 | 0.00 | 0.00 | 0.00 | 86 | 1018.4 |
| 20260502122105 | 66 | 66 | 6.0 | 12.0 | 0.00 | 0.00 | 0.00 | 86 | 1018.4 |
| 20260502122007 | 66 | 125 | 6.0 | 12.0 | 0.00 | 0.00 | 0.00 | 86 | 1018.5 |
| 20260502121906 | 66 | 63 | 6.0 | 12.0 | 0.00 | 0.00 | 0.00 | 86 | 1018.4 |
| 20260502121805 | 66 | 115 | 6.0 | 12.0 | 0.00 | 0.00 | 0.00 | 86 | 1018.5 |
| 20260502121705 | 66 | 111 | 6.0 | 12.0 | 0.00 | 0.00 | 0.00 | 86 | 1018.4 |
| 20260502121607 | 66 | 341 | 5.0 | 12.0 | 0.00 | 0.00 | 0.00 | 86 | 1018.5 |
| 20260502121508 | 66 | 287 | 5.0 | 12.0 | 0.00 | 0.00 | 0.00 | 86 | 1018.5 |
| 20260502121405 | 66 | 156 | 5.0 | 12.0 | 0.00 | 0.00 | 0.00 | 86 | 1018.4 |
| 20260502121105 | 66 | 162 | 4.0 | 12.0 | 0.00 | 0.00 | 0.00 | 86 | 1018.4 |
| 20260502121007 | 67 | 129 | 4.0 | 12.0 | 0.00 | 0.00 | 0.00 | 86 | 1018.4 |
| 20260502120805 | 67 | 123 | 4.0 | 11.0 | 0.00 | 0.00 | 0.00 | 86 | 1018.5 |
| 20260502120705 | 67 | 193 | 4.0 | 12.0 | 0.00 | 0.00 | 0.00 | 86 | 1018.4 |
| 20260502120506 | 66 | 194 | 4.0 | 12.0 | 0.00 | 0.00 | 0.00 | 86 | 1018.5 |
| 20260502120405 | 66 | 150 | 4.0 | 12.0 | 0.00 | 0.00 | 0.00 | 86 | 1018.4 |
| 20260502120106 | 66 | 77 | 5.0 | 12.0 | 0.00 | 0.00 | 0.00 | 87 | 1018.5 |
| 20260502115904 | 66 | 80 | 5.0 | 12.0 | 0.00 | 0.00 | 0.00 | 86 | 1018.4 |
| 20260502115806 | 66 | 74 | 5.0 | 11.0 | 0.00 | 0.00 | 0.00 | 87 | 1018.4 |
| 20260502115506 | 66 | 140 | 6.0 | 12.0 | 0.00 | 0.00 | 0.00 | 87 | 1018.4 |
| 20260502115404 | 66 | 97 | 6.0 | 12.0 | 0.00 | 0.00 | 0.00 | 86 | 1018.4 |
| 20260502115306 | 66 | 99 | 6.0 | 12.0 | 0.00 | 0.00 | 0.00 | 87 | 1018.4 |
| 20260502115206 | 66 | 120 | 6.0 | 12.0 | 0.00 | 0.00 | 0.00 | 87 | 1018.4 |
| 20260502115007 | 66 | 83 | 7.0 | 13.0 | 0.00 | 0.00 | 0.00 | 87 | 1018.4 |
| 20260502114905 | 66 | 170 | 7.0 | 13.0 | 0.00 | 0.00 | 0.00 | 86 | 1018.4 |
| 20260502114805 | 66 | 72 | 7.0 | 13.0 | 0.00 | 0.00 | 0.00 | 86 | 1018.4 |
| 20260502114705 | 66 | 330 | 6.0 | 13.0 | 0.00 | 0.00 | 0.00 | 87 | 1018.4 |
| 20260502114605 | 66 | 131 | 6.0 | 13.0 | 0.00 | 0.00 | 0.00 | 87 | 1018.4 |
| 20260502114507 | 66 | 86 | 6.0 | 13.0 | 0.00 | 0.00 | 0.00 | 86 | 1018.5 |
| 20260502114305 | 66 | 118 | 5.0 | 13.0 | 0.00 | 0.00 | 0.00 | 86 | 1018.4 |
| 20260502114206 | 67 | 109 | 5.0 | 13.0 | 0.00 | 0.00 | 0.00 | 86 | 1018.4 |
| 20260502114110 | 67 | 85 | 5.0 | 12.0 | 0.00 | 0.00 | 0.00 | 86 | 1018.4 |
| 20260502113906 | 67 | 116 | 4.0 | 12.0 | 0.00 | 0.00 | 0.00 | 87 | 1018.4 |
| 20260502113806 | 67 | 131 | 4.0 | 12.0 | 0.00 | 0.00 | 0.00 | 87 | 1018.5 |
| 20260502113705 | 66 | 81 | 5.0 | 12.0 | 0.00 | 0.00 | 0.00 | 87 | 1018.5 |
| 20260502113607 | 66 | 94 | 5.0 | 12.0 | 0.00 | 0.00 | 0.00 | 87 | 1018.5 |
| 20260502113509 | 66 | 158 | 5.0 | 12.0 | 0.00 | 0.00 | 0.00 | 86 | 1018.5 |
| 20260502113405 | 66 | 69 | 5.0 | 12.0 | 0.00 | 0.00 | 0.00 | 86 | 1018.6 |
| 20260502113207 | 66 | 51 | 5.0 | 12.0 | 0.00 | 0.00 | 0.00 | 86 | 1018.6 |
| 20260502113107 | 66 | 91 | 4.0 | 12.0 | 0.00 | 0.00 | 0.00 | 86 | 1018.6 |
| 20260502113008 | 66 | 127 | 4.0 | 10.0 | 0.00 | 0.00 | 0.00 | 87 | 1018.6 |
| 20260502112908 | 66 | 95 | 4.0 | 10.0 | 0.00 | 0.00 | 0.00 | 87 | 1018.6 |
| 20260502112806 | 66 | 120 | 4.0 | 10.0 | 0.00 | 0.00 | 0.00 | 87 | 1018.6 |
| 20260502112605 | 66 | 106 | 4.0 | 10.0 | 0.00 | 0.00 | 0.00 | 87 | 1018.8 |
| 20260502112508 | 67 | 104 | 3.0 | 10.0 | 0.00 | 0.00 | 0.00 | 87 | 1018.8 |
| 20260502112406 | 67 | 72 | 3.0 | 10.0 | 0.00 | 0.00 | 0.00 | 87 | 1018.8 |
| 20260502112306 | 66 | 83 | 3.0 | 10.0 | 0.00 | 0.00 | 0.00 | 87 | 1018.8 |
| 20260502112205 | 66 | 58 | 3.0 | 10.0 | 0.00 | 0.00 | 0.00 | 87 | 1018.8 |
| 20260502111906 | 66 | 68 | 3.0 | 11.0 | 0.00 | 0.00 | 0.00 | 87 | 1018.7 |
| 20260502111806 | 66 | 2 | 3.0 | 11.0 | 0.00 | 0.00 | 0.00 | 87 | 1018.8 |
| 20260502111606 | 66 | 169 | 3.0 | 11.0 | 0.00 | 0.00 | 0.00 | 87 | 1018.8 |
| 20260502111507 | 66 | 184 | 4.0 | 11.0 | 0.00 | 0.00 | 0.00 | 87 | 1018.9 |
| 20260502111405 | 66 | 330 | 4.0 | 11.0 | 0.00 | 0.00 | 0.00 | 87 | 1018.8 |
| 20260502111306 | 66 | 99 | 4.0 | 11.0 | 0.00 | 0.00 | 0.00 | 87 | 1018.9 |
| 20260502111205 | 66 | 101 | 5.0 | 11.0 | 0.00 | 0.00 | 0.00 | 87 | 1018.8 |
| 20260502111107 | 66 | 101 | 5.0 | 11.0 | 0.00 | 0.00 | 0.00 | 87 | 1018.8 |
| 20260502110905 | 66 | 150 | 5.0 | 11.0 | 0.00 | 0.00 | 0.00 | 87 | 1018.8 |
| 20260502110705 | 66 | 83 | 4.0 | 11.0 | 0.00 | 0.00 | 0.00 | 87 | 1018.8 |
| 20260502110506 | 66 | 165 | 3.0 | 11.0 | 0.00 | 0.00 | 0.00 | 88 | 1018.8 |
| 20260502110406 | 66 | 126 | 3.0 | 11.0 | 0.00 | 0.00 | 0.00 | 88 | 1018.8 |
| 20260502110305 | 66 | 87 | 2.0 | 11.0 | 0.00 | 0.00 | 0.00 | 88 | 1019.0 |
| 20260502110205 | 66 | 101 | 2.0 | 9.0 | 0.00 | 0.00 | 0.00 | 88 | 1018.9 |
| 20260502110105 | 66 | 106 | 2.0 | 9.0 | 0.00 | 0.00 | 0.00 | 88 | 1019.0 |
| 20260502110008 | 66 | 32 | 2.0 | 9.0 | 0.00 | 0.00 | 0.00 | 88 | 1019.1 |
| 20260502105905 | 66 | 108 | 2.0 | 9.0 | 0.00 | 0.00 | 0.00 | 88 | 1019.1 |
| 20260502105805 | 66 | 221 | 2.0 | 7.0 | 0.00 | 0.00 | 0.00 | 88 | 1019.2 |
| 20260502105706 | 66 | 110 | 2.0 | 7.0 | 0.00 | 0.00 | 0.00 | 88 | 1019.1 |
| 20260502105508 | 66 | 195 | 2.0 | 7.0 | 0.00 | 0.00 | 0.00 | 88 | 1019.1 |
| 20260502105405 | 66 | 88 | 2.0 | 7.0 | 0.00 | 0.00 | 0.00 | 88 | 1019.1 |
| 20260502105306 | 66 | 77 | 2.0 | 5.0 | 0.00 | 0.00 | 0.00 | 88 | 1019.1 |
| 20260502105104 | 65 | 97 | 3.0 | 6.0 | 0.00 | 0.00 | 0.00 | 88 | 1019.1 |
| 20260502105007 | 65 | 127 | 3.0 | 6.0 | 0.00 | 0.00 | 0.00 | 88 | 1019.1 |
| 20260502104906 | 65 | 79 | 3.0 | 6.0 | 0.00 | 0.00 | 0.00 | 88 | 1019.1 |
| 20260502104605 | 65 | 82 | 4.0 | 7.0 | 0.00 | 0.00 | 0.00 | 88 | 1019.0 |
| 20260502104506 | 65 | 46 | 4.0 | 7.0 | 0.00 | 0.00 | 0.00 | 88 | 1019.1 |
| 20260502104405 | 65 | 60 | 5.0 | 7.0 | 0.00 | 0.00 | 0.00 | 88 | 1019.0 |
| 20260502104305 | 65 | 54 | 5.0 | 7.0 | 0.00 | 0.00 | 0.00 | 88 | 1019.1 |
| 20260502104205 | 65 | 51 | 5.0 | 7.0 | 0.00 | 0.00 | 0.00 | 88 | 1019.0 |
| 20260502104105 | 65 | 66 | 5.0 | 7.0 | 0.00 | 0.00 | 0.00 | 87 | 1019.0 |
| 20260502104008 | 65 | 112 | 5.0 | 7.0 | 0.00 | 0.00 | 0.00 | 87 | 1019.1 |
| 20260502103906 | 65 | 64 | 5.0 | 8.0 | 0.00 | 0.00 | 0.00 | 87 | 1019.1 |
| 20260502103805 | 65 | 49 | 5.0 | 8.0 | 0.00 | 0.00 | 0.00 | 87 | 1019.0 |
| 20260502103705 | 65 | 58 | 5.0 | 8.0 | 0.00 | 0.00 | 0.00 | 87 | 1019.1 |
| 20260502103605 | 65 | 81 | 5.0 | 8.0 | 0.00 | 0.00 | 0.00 | 87 | 1019.2 |
| 20260502103507 | 65 | 77 | 5.0 | 8.0 | 0.00 | 0.00 | 0.00 | 87 | 1019.2 |
| 20260502103405 | 65 | 83 | 5.0 | 8.0 | 0.00 | 0.00 | 0.00 | 87 | 1019.1 |
| 20260502103304 | 65 | 73 | 6.0 | 9.0 | 0.00 | 0.00 | 0.00 | 87 | 1019.2 |
| 20260502103204 | 65 | 68 | 6.0 | 9.0 | 0.00 | 0.00 | 0.00 | 87 | 1019.2 |
| 20260502103105 | 65 | 77 | 6.0 | 9.0 | 0.00 | 0.00 | 0.00 | 87 | 1019.1 |
| 20260502103007 | 65 | 73 | 6.0 | 11.0 | 0.00 | 0.00 | 0.00 | 87 | 1019.1 |
| 20260502102905 | 65 | 67 | 6.0 | 11.0 | 0.00 | 0.00 | 0.00 | 87 | 1019.1 |
| 20260502102806 | 65 | 83 | 7.0 | 11.0 | 0.00 | 0.00 | 0.00 | 87 | 1019.2 |
| 20260502102705 | 65 | 33 | 7.0 | 11.0 | 0.00 | 0.00 | 0.00 | 87 | 1019.2 |
| 20260502102605 | 65 | 62 | 7.0 | 11.0 | 0.00 | 0.00 | 0.00 | 86 | 1019.2 |
| 20260502102306 | 65 | 66 | 7.0 | 11.0 | 0.00 | 0.00 | 0.00 | 86 | 1019.2 |
| 20260502102207 | 65 | 64 | 7.0 | 11.0 | 0.00 | 0.00 | 0.00 | 86 | 1019.2 |
| 20260502102106 | 66 | 61 | 7.0 | 11.0 | 0.00 | 0.00 | 0.00 | 86 | 1019.2 |
| 20260502102006 | 66 | 55 | 6.0 | 10.0 | 0.00 | 0.00 | 0.00 | 86 | 1019.2 |
| 20260502101904 | 66 | 61 | 6.0 | 10.0 | 0.00 | 0.00 | 0.00 | 86 | 1019.2 |
| 20260502101804 | 66 | 63 | 6.0 | 10.0 | 0.00 | 0.00 | 0.00 | 86 | 1019.2 |
| 20260502101705 | 66 | 75 | 6.0 | 10.0 | 0.00 | 0.00 | 0.00 | 86 | 1019.2 |
| 20260502101606 | 66 | 96 | 5.0 | 10.0 | 0.00 | 0.00 | 0.00 | 86 | 1019.3 |
| 20260502101506 | 66 | 61 | 5.0 | 10.0 | 0.00 | 0.00 | 0.00 | 86 | 1019.2 |
| 20260502101406 | 66 | 57 | 5.0 | 10.0 | 0.00 | 0.00 | 0.00 | 86 | 1019.3 |
| 20260502101305 | 66 | 76 | 5.0 | 10.0 | 0.00 | 0.00 | 0.00 | 85 | 1019.2 |
| 20260502101105 | 66 | 66 | 4.0 | 10.0 | 0.00 | 0.00 | 0.00 | 86 | 1019.1 |
| 20260502101008 | 66 | 76 | 3.0 | 9.0 | 0.00 | 0.00 | 0.00 | 85 | 1019.1 |
| 20260502100904 | 66 | 64 | 3.0 | 8.0 | 0.00 | 0.00 | 0.00 | 85 | 1019.2 |
| 20260502100805 | 66 | 69 | 3.0 | 8.0 | 0.00 | 0.00 | 0.00 | 86 | 1019.2 |
| 20260502100705 | 66 | 54 | 3.0 | 6.0 | 0.00 | 0.00 | 0.00 | 86 | 1019.1 |
| 20260502100605 | 66 | 25 | 3.0 | 6.0 | 0.00 | 0.00 | 0.00 | 85 | 1019.1 |
| 20260502100506 | 66 | 60 | 3.0 | 6.0 | 0.00 | 0.00 | 0.00 | 85 | 1019.2 |
| 20260502100305 | 66 | 68 | 2.0 | 6.0 | 0.00 | 0.00 | 0.00 | 85 | 1019.2 |
| 20260502100105 | 66 | 80 | 2.0 | 6.0 | 0.00 | 0.00 | 0.00 | 85 | 1019.2 |
| 20260502091507 | 66 | 54 | 2.0 | 6.0 | 0.00 | 0.00 | 0.00 | 88 | 1019.4 |
| 20260502091407 | 66 | 25 | 2.0 | 6.0 | 0.00 | 0.00 | 0.00 | 88 | 1019.4 |
| 20260502091305 | 66 | 66 | 2.0 | 6.0 | 0.00 | 0.00 | 0.00 | 87 | 1019.5 |
| 20260502091008 | 66 | 82 | 2.0 | 6.0 | 0.00 | 0.00 | 0.00 | 87 | 1019.4 |
| 20260502090906 | 66 | 31 | 2.0 | 4.0 | 0.00 | 0.00 | 0.00 | 88 | 1019.4 |
| 20260502090806 | 66 | 62 | 1.0 | 4.0 | 0.00 | 0.00 | 0.00 | 88 | 1019.4 |
| 20260502090708 | 66 | 62 | 2.0 | 4.0 | 0.00 | 0.00 | 0.00 | 88 | 1019.5 |
| 20260502090606 | 66 | 25 | 2.0 | 4.0 | 0.00 | 0.00 | 0.00 | 88 | 1019.4 |
| 20260502090407 | 66 | 58 | 2.0 | 4.0 | 0.00 | 0.00 | 0.00 | 88 | 1019.5 |
| 20260502090306 | 66 | 112 | 2.0 | 4.0 | 0.00 | 0.00 | 0.00 | 88 | 1019.5 |
| 20260502090206 | 66 | 146 | 2.0 | 4.0 | 0.00 | 0.00 | 0.00 | 88 | 1019.4 |
| 20260502090108 | 66 | 93 | 2.0 | 4.0 | 0.00 | 0.00 | 0.00 | 88 | 1019.4 |
| 20260502080105 | 65 | 68 | 2.0 | 4.0 | 0.00 | 0.00 | 0.00 | 85 | 1019.5 |
| 20260502071508 | 65 | 254 | 1.0 | 2.0 | 0.00 | 0.00 | 0.00 | 88 | 1019.4 |
| 20260502071406 | 65 | 254 | 1.0 | 3.0 | 0.00 | 0.00 | 0.00 | 88 | 1019.5 |
| 20260502071306 | 65 | 254 | 1.0 | 3.0 | 0.00 | 0.00 | 0.00 | 88 | 1019.4 |
| 20260502071207 | 65 | 254 | 1.0 | 3.0 | 0.00 | 0.00 | 0.00 | 88 | 1019.4 |
| 20260502071106 | 65 | 254 | 1.0 | 3.0 | 0.00 | 0.00 | 0.00 | 87 | 1019.4 |
| 20260502070905 | 64 | 254 | 1.0 | 3.0 | 0.00 | 0.00 | 0.00 | 87 | 1019.3 |
| 20260502070805 | 64 | 254 | 0.0 | 3.0 | 0.00 | 0.00 | 0.00 | 87 | 1019.4 |
| 20260502070704 | 64 | 254 | 0.0 | 3.0 | 0.00 | 0.00 | 0.00 | 87 | 1019.4 |
| 20260502070604 | 64 | 254 | 0.0 | 3.0 | 0.00 | 0.00 | 0.00 | 87 | 1019.4 |
| 20260502070507 | 64 | 254 | 0.0 | 3.0 | 0.00 | 0.00 | 0.00 | 88 | 1019.4 |
| 20260502070313 | 64 | 254 | 0.0 | 0.0 | 0.00 | 0.00 | 0.00 | 88 | 1019.4 |
| 20260502070206 | 64 | 254 | 0.0 | 0.0 | 0.00 | 0.00 | 0.00 | 88 | 1019.4 |
| 20260502070105 | 64 | 254 | 0.0 | 0.0 | 0.00 | 0.00 | 0.00 | 88 | 1019.4 |
| 20260502070009 | 64 | 254 | 0.0 | 0.0 | 0.00 | 0.00 | 0.00 | 88 | 1019.4 |
| 20260502065912 | 64 | 254 | 0.0 | 0.0 | 0.00 | 0.03 | 0.00 | 88 | 1019.4 |
| 20260502065712 | 64 | 254 | 0.0 | 1.0 | 0.00 | 0.03 | 0.00 | 88 | 1019.4 |
| 20260502065605 | 64 | 254 | 0.0 | 2.0 | 0.00 | 0.03 | 0.00 | 88 | 1019.4 |
| 20260502065509 | 64 | 254 | 0.0 | 2.0 | 0.00 | 0.03 | 0.00 | 88 | 1019.4 |
| 20260502065412 | 64 | 254 | 0.0 | 2.0 | 0.00 | 0.03 | 0.00 | 88 | 1019.4 |
| 20260502065306 | 64 | 254 | 0.0 | 2.0 | 0.00 | 0.03 | 0.00 | 88 | 1019.4 |
| 20260502065213 | 64 | 254 | 1.0 | 2.0 | 0.00 | 0.03 | 0.00 | 88 | 1019.4 |
| 20260502065104 | 64 | 254 | 1.0 | 2.0 | 0.00 | 0.03 | 0.00 | 88 | 1019.4 |
| 20260502065007 | 64 | 254 | 1.0 | 2.0 | 0.00 | 0.03 | 0.00 | 88 | 1019.4 |
| 20260502064905 | 64 | 254 | 1.0 | 3.0 | 0.00 | 0.03 | 0.00 | 88 | 1019.4 |
| 20260502064805 | 64 | 254 | 1.0 | 3.0 | 0.00 | 0.03 | 0.00 | 88 | 1019.4 |
| 20260502064705 | 64 | 254 | 1.0 | 3.0 | 0.00 | 0.03 | 0.00 | 88 | 1019.4 |
| 20260502064606 | 64 | 254 | 1.0 | 3.0 | 0.00 | 0.03 | 0.00 | 88 | 1019.5 |
| 20260502064507 | 64 | 254 | 1.0 | 3.0 | 0.00 | 0.03 | 0.00 | 88 | 1019.5 |
| 20260502064312 | 64 | 254 | 1.0 | 3.0 | 0.00 | 0.03 | 0.00 | 88 | 1019.5 |
| 20260502064212 | 64 | 254 | 1.0 | 3.0 | 0.00 | 0.03 | 0.00 | 88 | 1019.5 |
| 20260502064105 | 64 | 254 | 1.0 | 3.0 | 0.00 | 0.03 | 0.00 | 88 | 1019.5 |
| 20260502064031 | 64 | 254 | 1.0 | 3.0 | 0.00 | 0.03 | 0.00 | 88 | 1019.5 |
| 20260502063806 | 64 | 254 | 1.0 | 4.0 | 0.00 | 0.03 | 0.00 | 88 | 1019.5 |
| 20260502063604 | 64 | 254 | 2.0 | 6.0 | 0.00 | 0.03 | 0.00 | 88 | 1019.5 |
| 20260502063306 | 64 | 315 | 2.0 | 6.0 | 0.00 | 0.03 | 0.00 | 88 | 1019.5 |
| 20260502063205 | 64 | 213 | 2.0 | 6.0 | 0.00 | 0.03 | 0.00 | 88 | 1019.5 |
| 20260502063104 | 64 | 209 | 2.0 | 6.0 | 0.00 | 0.03 | 0.00 | 88 | 1019.5 |
| 20260502063009 | 64 | 316 | 3.0 | 6.0 | 0.00 | 0.03 | 0.00 | 88 | 1019.6 |
| 20260502062912 | 64 | 291 | 3.0 | 6.0 | 0.00 | 0.03 | 0.00 | 88 | 1019.6 |
| 20260502062804 | 64 | 330 | 2.0 | 6.0 | 0.00 | 0.03 | 0.00 | 89 | 1019.6 |
| 20260502062706 | 64 | 235 | 2.0 | 6.0 | 0.00 | 0.03 | 0.00 | 89 | 1019.6 |
| 20260502062508 | 63 | 238 | 3.0 | 6.0 | 0.00 | 0.03 | 0.00 | 89 | 1019.6 |
| 20260502062405 | 64 | 210 | 3.0 | 6.0 | 0.00 | 0.03 | 0.00 | 89 | 1019.7 |
| 20260502062306 | 64 | 321 | 3.0 | 6.0 | 0.00 | 0.03 | 0.00 | 89 | 1019.7 |
| 20260502062106 | 63 | 343 | 3.0 | 6.0 | 0.00 | 0.03 | 0.00 | 89 | 1019.6 |
| 20260502062008 | 63 | 348 | 2.0 | 6.0 | 0.00 | 0.03 | 0.00 | 89 | 1019.6 |
| 20260502061905 | 63 | 248 | 2.0 | 5.0 | 0.00 | 0.03 | 0.00 | 89 | 1019.6 |
| 20260502061707 | 63 | 243 | 2.0 | 5.0 | 0.00 | 0.03 | 0.00 | 89 | 1019.7 |
| 20260502061607 | 63 | 231 | 2.0 | 5.0 | 0.00 | 0.03 | 0.00 | 89 | 1019.6 |
| 20260502061508 | 63 | 308 | 2.0 | 5.0 | 0.00 | 0.03 | 0.00 | 89 | 1019.5 |
| 20260502061405 | 63 | 340 | 2.0 | 5.0 | 0.00 | 0.03 | 0.00 | 88 | 1019.5 |
| 20260502061206 | 63 | 335 | 2.0 | 3.0 | 0.00 | 0.03 | 0.00 | 89 | 1019.6 |
| 20260502061106 | 63 | 347 | 2.0 | 4.0 | 0.00 | 0.03 | 0.00 | 88 | 1019.5 |
| 20260502060908 | 63 | 242 | 2.0 | 4.0 | 0.00 | 0.03 | 0.00 | 88 | 1019.5 |
| 20260502060706 | 63 | 272 | 1.0 | 4.0 | 0.00 | 0.03 | 0.00 | 88 | 1019.5 |
| 20260502060507 | 63 | 272 | 2.0 | 4.0 | 0.00 | 0.03 | 0.00 | 88 | 1019.5 |
| 20260502060407 | 63 | 272 | 2.0 | 4.0 | 0.00 | 0.03 | 0.00 | 88 | 1019.5 |
| 20260502060304 | 63 | 306 | 1.0 | 4.0 | 0.00 | 0.03 | 0.00 | 88 | 1019.4 |
| 20260502060205 | 63 | 344 | 1.0 | 4.0 | 0.00 | 0.03 | 0.00 | 88 | 1019.5 |
| 20260502060108 | 63 | 213 | 1.0 | 3.0 | 0.00 | 0.03 | 0.00 | 88 | 1019.5 |
| 20260502055706 | 63 | 1 | 2.0 | 4.0 | 0.00 | 0.06 | 0.00 | 88 | 1019.2 |
| 20260502055604 | 63 | 1 | 1.0 | 4.0 | 0.00 | 0.06 | 0.00 | 88 | 1019.2 |
| 20260502055507 | 64 | 357 | 2.0 | 4.0 | 0.00 | 0.06 | 0.00 | 88 | 1019.2 |
| 20260502055405 | 64 | 257 | 2.0 | 4.0 | 0.00 | 0.06 | 0.00 | 88 | 1019.2 |
| 20260502055306 | 64 | 358 | 2.0 | 4.0 | 0.00 | 0.06 | 0.00 | 88 | 1019.2 |
| 20260502055204 | 64 | 339 | 2.0 | 4.0 | 0.00 | 0.06 | 0.00 | 88 | 1019.2 |
| 20260502055105 | 64 | 320 | 2.0 | 4.0 | 0.00 | 0.06 | 0.00 | 88 | 1019.2 |
| 20260502054906 | 64 | 227 | 2.0 | 3.0 | 0.00 | 0.06 | 0.00 | 88 | 1019.3 |
| 20260502054804 | 64 | 252 | 1.0 | 3.0 | 0.00 | 0.06 | 0.00 | 88 | 1019.3 |
| 20260502054704 | 64 | 298 | 1.0 | 3.0 | 0.00 | 0.06 | 0.00 | 88 | 1019.3 |
| 20260502054604 | 64 | 349 | 1.0 | 3.0 | 0.00 | 0.06 | 0.00 | 88 | 1019.3 |
| 20260502054507 | 64 | 345 | 1.0 | 3.0 | 0.00 | 0.06 | 0.00 | 88 | 1019.3 |
| 20260502054405 | 64 | 250 | 1.0 | 3.0 | 0.00 | 0.06 | 0.00 | 88 | 1019.2 |
| 20260502054304 | 64 | 241 | 1.0 | 3.0 | 0.00 | 0.06 | 0.00 | 88 | 1019.4 |
| 20260502054206 | 64 | 247 | 1.0 | 3.0 | 0.00 | 0.06 | 0.00 | 88 | 1019.2 |
| 20260502054106 | 64 | 254 | 1.0 | 3.0 | 0.00 | 0.06 | 0.00 | 88 | 1019.2 |
| 20260502053906 | 64 | 325 | 1.0 | 3.0 | 0.00 | 0.06 | 0.00 | 88 | 1019.3 |
| 20260502053804 | 64 | 249 | 1.0 | 3.0 | 0.00 | 0.06 | 0.00 | 88 | 1019.2 |
| 20260502053706 | 64 | 223 | 1.0 | 3.0 | 0.00 | 0.06 | 0.00 | 88 | 1019.2 |
| 20260502053606 | 64 | 6 | 1.0 | 3.0 | 0.00 | 0.06 | 0.00 | 88 | 1019.2 |
| 20260502053508 | 64 | 274 | 1.0 | 3.0 | 0.00 | 0.06 | 0.00 | 88 | 1019.2 |
| 20260502053305 | 64 | 251 | 1.0 | 3.0 | 0.00 | 0.06 | 0.00 | 88 | 1019.2 |
| 20260502053206 | 64 | 272 | 1.0 | 3.0 | 0.00 | 0.06 | 0.00 | 88 | 1019.1 |
| 20260502053107 | 64 | 272 | 1.0 | 3.0 | 0.00 | 0.06 | 0.00 | 88 | 1019.2 |
| 20260502052805 | 64 | 341 | 1.0 | 3.0 | 0.00 | 0.06 | 0.00 | 88 | 1019.2 |
| 20260502052706 | 64 | 341 | 0.0 | 3.0 | 0.00 | 0.06 | 0.00 | 88 | 1019.2 |
| 20260502052605 | 64 | 276 | 0.0 | 3.0 | 0.00 | 0.06 | 0.00 | 88 | 1019.1 |
| 20260502052506 | 64 | 243 | 0.0 | 3.0 | 0.00 | 0.06 | 0.00 | 88 | 1019.2 |
| 20260502052406 | 64 | 3 | 0.0 | 1.0 | 0.00 | 0.06 | 0.00 | 88 | 1019.1 |
| 20260502052306 | 64 | 3 | 0.0 | 1.0 | 0.00 | 0.06 | 0.00 | 88 | 1019.1 |
| 20260502052207 | 64 | 3 | 0.0 | 0.0 | 0.00 | 0.06 | 0.00 | 88 | 1019.1 |
| 20260502052007 | 64 | 3 | 0.0 | 0.0 | 0.00 | 0.06 | 0.00 | 88 | 1019.0 |
| 20260502051904 | 64 | 3 | 0.0 | 0.0 | 0.00 | 0.06 | 0.00 | 88 | 1019.0 |
| 20260502051806 | 64 | 3 | 0.0 | 0.0 | 0.00 | 0.06 | 0.00 | 88 | 1019.0 |
| 20260502051705 | 64 | 3 | 0.0 | 0.0 | 0.00 | 0.06 | 0.00 | 88 | 1019.0 |
| 20260502051605 | 64 | 3 | 0.0 | 0.0 | 0.00 | 0.06 | 0.00 | 88 | 1019.0 |
| 20260502051507 | 64 | 3 | 0.0 | 0.0 | 0.00 | 0.06 | 0.00 | 88 | 1019.0 |
| 20260502051405 | 64 | 3 | 0.0 | 1.0 | 0.00 | 0.06 | 0.00 | 88 | 1019.0 |
| 20260502051305 | 64 | 3 | 0.0 | 1.0 | 0.00 | 0.06 | 0.00 | 88 | 1018.9 |
| 20260502051105 | 64 | 3 | 0.0 | 2.0 | 0.00 | 0.06 | 0.00 | 88 | 1018.9 |
| 20260502051006 | 64 | 3 | 0.0 | 2.0 | 0.00 | 0.06 | 0.00 | 88 | 1019.0 |
| 20260502050804 | 64 | 3 | 0.0 | 2.0 | 0.00 | 0.06 | 0.00 | 88 | 1018.9 |
| 20260502050704 | 64 | 3 | 0.0 | 2.0 | 0.00 | 0.06 | 0.00 | 88 | 1018.9 |
| 20260502050604 | 64 | 3 | 0.0 | 2.0 | 0.00 | 0.06 | 0.00 | 88 | 1018.9 |
| 20260502050506 | 64 | 3 | 0.0 | 2.0 | 0.00 | 0.06 | 0.00 | 88 | 1019.0 |
| 20260502050305 | 64 | 3 | 0.0 | 2.0 | 0.00 | 0.06 | 0.00 | 88 | 1019.0 |
| 20260502050206 | 64 | 3 | 0.0 | 1.0 | 0.00 | 0.06 | 0.00 | 88 | 1019.0 |
| 20260502050105 | 64 | 3 | 0.0 | 2.0 | 0.00 | 0.06 | 0.00 | 89 | 1019.0 |
| 20260502045905 | 64 | 3 | 0.0 | 2.0 | 0.00 | 0.06 | 0.00 | 89 | 1018.9 |
| 20260502045804 | 64 | 3 | 0.0 | 2.0 | 0.00 | 0.06 | 0.00 | 89 | 1018.9 |
| 20260502045705 | 64 | 3 | 0.0 | 2.0 | 0.00 | 0.06 | 0.00 | 89 | 1019.0 |
| 20260502045604 | 64 | 3 | 0.0 | 2.0 | 0.00 | 0.06 | 0.00 | 89 | 1018.9 |
| 20260502045405 | 64 | 3 | 0.0 | 2.0 | 0.00 | 0.06 | 0.00 | 89 | 1018.9 |
| 20260502045306 | 64 | 3 | 0.0 | 2.0 | 0.00 | 0.06 | 0.00 | 89 | 1018.9 |
| 20260502045205 | 64 | 3 | 0.0 | 2.0 | 0.00 | 0.06 | 0.00 | 89 | 1018.9 |
| 20260502045107 | 64 | 3 | 0.0 | 1.0 | 0.00 | 0.06 | 0.00 | 89 | 1018.9 |
| 20260502045007 | 64 | 3 | 0.0 | 0.0 | 0.00 | 0.06 | 0.00 | 89 | 1019.0 |
| 20260502044807 | 64 | 3 | 0.0 | 0.0 | 0.00 | 0.06 | 0.00 | 89 | 1019.0 |
| 20260502044706 | 64 | 3 | 0.0 | 0.0 | 0.00 | 0.06 | 0.00 | 89 | 1018.9 |
| 20260502044604 | 64 | 3 | 0.0 | 0.0 | 0.00 | 0.06 | 0.00 | 89 | 1019.0 |
| 20260502044508 | 64 | 3 | 0.0 | 0.0 | 0.00 | 0.06 | 0.00 | 89 | 1019.0 |
| 20260502044405 | 64 | 3 | 0.0 | 0.0 | 0.00 | 0.06 | 0.00 | 89 | 1019.0 |
| 20260502044308 | 64 | 3 | 0.0 | 0.0 | 0.00 | 0.06 | 0.00 | 89 | 1019.0 |
| 20260502044208 | 64 | 3 | 0.0 | 0.0 | 0.00 | 0.06 | 0.00 | 89 | 1019.0 |
| 20260502044105 | 64 | 3 | 0.0 | 0.0 | 0.00 | 0.06 | 0.00 | 89 | 1019.0 |
| 20260502044008 | 64 | 3 | 0.0 | 0.0 | 0.00 | 0.06 | 0.00 | 89 | 1019.0 |
| 20260502043806 | 64 | 3 | 0.0 | 0.0 | 0.00 | 0.06 | 0.00 | 89 | 1019.1 |
| 20260502043705 | 64 | 3 | 0.0 | 0.0 | 0.00 | 0.06 | 0.00 | 89 | 1019.1 |
| 20260502043508 | 63 | 3 | 0.0 | 0.0 | 0.00 | 0.06 | 0.00 | 89 | 1019.1 |
| 20260502043406 | 64 | 3 | 0.0 | 1.0 | 0.00 | 0.06 | 0.00 | 89 | 1019.1 |
| 20260502043304 | 64 | 3 | 0.0 | 1.0 | 0.00 | 0.06 | 0.00 | 89 | 1019.1 |
| 20260502043204 | 64 | 3 | 0.0 | 1.0 | 0.00 | 0.06 | 0.00 | 89 | 1019.1 |
| 20260502043104 | 64 | 3 | 0.0 | 1.0 | 0.00 | 0.06 | 0.00 | 89 | 1019.1 |
| 20260502043007 | 63 | 260 | 0.0 | 2.0 | 0.00 | 0.06 | 0.00 | 89 | 1019.2 |
| 20260502042905 | 63 | 260 | 1.0 | 2.0 | 0.00 | 0.06 | 0.00 | 89 | 1019.1 |
| 20260502042804 | 63 | 260 | 1.0 | 2.0 | 0.00 | 0.06 | 0.00 | 89 | 1019.2 |
| 20260502042705 | 63 | 260 | 1.0 | 3.0 | 0.00 | 0.06 | 0.00 | 89 | 1019.2 |
| 20260502042608 | 64 | 260 | 1.0 | 4.0 | 0.00 | 0.06 | 0.00 | 89 | 1019.2 |
| 20260502042506 | 63 | 260 | 1.0 | 4.0 | 0.00 | 0.06 | 0.00 | 89 | 1019.2 |
| 20260502042206 | 63 | 335 | 2.0 | 4.0 | 0.00 | 0.06 | 0.00 | 89 | 1019.2 |
| 20260502042105 | 63 | 335 | 2.0 | 6.0 | 0.00 | 0.06 | 0.00 | 89 | 1019.2 |
| 20260502042006 | 63 | 335 | 2.0 | 6.0 | 0.00 | 0.06 | 0.00 | 89 | 1019.2 |
| 20260502041904 | 63 | 335 | 2.0 | 6.0 | 0.00 | 0.06 | 0.00 | 89 | 1019.2 |
| 20260502041804 | 63 | 314 | 2.0 | 6.0 | 0.00 | 0.06 | 0.00 | 89 | 1019.2 |
| 20260502041704 | 63 | 339 | 2.0 | 6.0 | 0.00 | 0.06 | 0.00 | 89 | 1019.2 |
| 20260502041604 | 63 | 330 | 3.0 | 6.0 | 0.00 | 0.06 | 0.00 | 89 | 1019.2 |
| 20260502041506 | 63 | 227 | 3.0 | 6.0 | 0.00 | 0.06 | 0.00 | 89 | 1019.2 |
| 20260502041405 | 63 | 325 | 3.0 | 8.0 | 0.00 | 0.06 | 0.00 | 89 | 1019.2 |
| 20260502041305 | 63 | 311 | 3.0 | 8.0 | 0.00 | 0.06 | 0.00 | 89 | 1019.2 |
| 20260502041104 | 63 | 262 | 4.0 | 8.0 | 0.00 | 0.06 | 0.00 | 89 | 1019.2 |
| 20260502041009 | 63 | 330 | 4.0 | 8.0 | 0.00 | 0.06 | 0.00 | 89 | 1019.2 |
| 20260502040805 | 63 | 314 | 4.0 | 8.0 | 0.00 | 0.06 | 0.00 | 89 | 1019.2 |
| 20260502040704 | 63 | 347 | 4.0 | 8.0 | 0.00 | 0.06 | 0.00 | 89 | 1019.2 |
| 20260502040507 | 63 | 247 | 4.0 | 8.0 | 0.00 | 0.06 | 0.00 | 89 | 1019.2 |
| 20260502040404 | 63 | 300 | 4.0 | 8.0 | 0.00 | 0.06 | 0.00 | 89 | 1019.3 |
| 20260502040304 | 63 | 308 | 4.0 | 8.0 | 0.00 | 0.06 | 0.00 | 89 | 1019.4 |
| 20260502040204 | 63 | 330 | 4.0 | 8.0 | 0.00 | 0.06 | 0.00 | 89 | 1019.4 |
| 20260502040106 | 63 | 344 | 4.0 | 8.0 | 0.00 | 0.06 | 0.00 | 89 | 1019.4 |
| 20260502035804 | 63 | 325 | 3.0 | 8.0 | 0.00 | 0.06 | 0.00 | 89 | 1019.5 |
| 20260502035705 | 63 | 313 | 3.0 | 8.0 | 0.00 | 0.06 | 0.00 | 89 | 1019.5 |
| 20260502035506 | 63 | 270 | 3.0 | 8.0 | 0.00 | 0.06 | 0.00 | 89 | 1019.5 |
| 20260502035404 | 63 | 347 | 3.0 | 8.0 | 0.00 | 0.06 | 0.00 | 89 | 1019.5 |
| 20260502035306 | 63 | 285 | 3.0 | 8.0 | 0.00 | 0.06 | 0.00 | 89 | 1019.5 |
| 20260502035205 | 63 | 257 | 3.0 | 8.0 | 0.00 | 0.06 | 0.00 | 89 | 1019.5 |
| 20260502035107 | 63 | 296 | 3.0 | 8.0 | 0.00 | 0.06 | 0.00 | 89 | 1019.5 |
| 20260502035007 | 63 | 311 | 3.0 | 7.0 | 0.00 | 0.06 | 0.00 | 89 | 1019.5 |
| 20260502034905 | 63 | 325 | 3.0 | 6.0 | 0.00 | 0.06 | 0.00 | 89 | 1019.5 |
| 20260502034804 | 63 | 335 | 3.0 | 6.0 | 0.00 | 0.06 | 0.00 | 89 | 1019.5 |
| 20260502034704 | 63 | 343 | 3.0 | 6.0 | 0.00 | 0.06 | 0.00 | 89 | 1019.5 |
| 20260502034606 | 63 | 272 | 3.0 | 6.0 | 0.00 | 0.06 | 0.00 | 89 | 1019.4 |
| 20260502034506 | 63 | 335 | 3.0 | 5.0 | 0.00 | 0.06 | 0.00 | 89 | 1019.5 |
| 20260502034404 | 63 | 205 | 3.0 | 5.0 | 0.00 | 0.06 | 0.00 | 89 | 1019.4 |
| 20260502034304 | 63 | 318 | 3.0 | 5.0 | 0.00 | 0.06 | 0.00 | 89 | 1019.4 |
| 20260502034205 | 63 | 236 | 3.0 | 5.0 | 0.00 | 0.06 | 0.00 | 89 | 1019.4 |
| 20260502034106 | 63 | 246 | 3.0 | 6.0 | 0.00 | 0.06 | 0.00 | 89 | 1019.5 |
| 20260502033908 | 63 | 335 | 3.0 | 6.0 | 0.00 | 0.06 | 0.00 | 89 | 1019.5 |
| 20260502033804 | 63 | 237 | 3.0 | 6.0 | 0.00 | 0.06 | 0.00 | 89 | 1019.5 |
| 20260502033705 | 63 | 330 | 3.0 | 6.0 | 0.00 | 0.06 | 0.00 | 89 | 1019.6 |
| 20260502033605 | 63 | 245 | 3.0 | 6.0 | 0.00 | 0.06 | 0.00 | 89 | 1019.5 |
| 20260502033507 | 63 | 262 | 3.0 | 6.0 | 0.00 | 0.06 | 0.00 | 89 | 1019.5 |
| 20260502033405 | 63 | 325 | 3.0 | 6.0 | 0.00 | 0.06 | 0.00 | 89 | 1019.5 |
| 20260502033306 | 63 | 335 | 3.0 | 6.0 | 0.00 | 0.06 | 0.00 | 89 | 1019.5 |
| 20260502033206 | 63 | 330 | 3.0 | 6.0 | 0.00 | 0.06 | 0.00 | 89 | 1019.6 |
| 20260502033106 | 63 | 312 | 3.0 | 6.0 | 0.00 | 0.06 | 0.00 | 89 | 1019.5 |
| 20260502033007 | 63 | 283 | 3.0 | 6.0 | 0.00 | 0.06 | 0.00 | 89 | 1019.5 |
| 20260502032906 | 63 | 227 | 3.0 | 6.0 | 0.00 | 0.06 | 0.00 | 89 | 1019.5 |
| 20260502032805 | 64 | 350 | 2.0 | 7.0 | 0.00 | 0.06 | 0.00 | 89 | 1019.6 |
| 20260502032705 | 64 | 317 | 2.0 | 5.0 | 0.00 | 0.06 | 0.00 | 89 | 1019.5 |
| 20260502032606 | 64 | 229 | 2.0 | 5.0 | 0.00 | 0.06 | 0.00 | 89 | 1019.5 |
| 20260502032506 | 64 | 289 | 2.0 | 5.0 | 0.00 | 0.06 | 0.00 | 89 | 1019.6 |
| 20260502032306 | 64 | 302 | 2.0 | 6.0 | 0.00 | 0.06 | 0.00 | 89 | 1019.5 |
| 20260502032207 | 64 | 221 | 2.0 | 6.0 | 0.00 | 0.06 | 0.00 | 89 | 1019.5 |
| 20260502032104 | 64 | 274 | 2.0 | 6.0 | 0.00 | 0.06 | 0.00 | 89 | 1019.4 |
| 20260502032008 | 64 | 247 | 2.0 | 6.0 | 0.00 | 0.06 | 0.00 | 89 | 1019.5 |
| 20260502031804 | 64 | 258 | 2.0 | 5.0 | 0.00 | 0.06 | 0.00 | 89 | 1019.5 |
| 20260502031704 | 64 | 262 | 2.0 | 5.0 | 0.00 | 0.06 | 0.00 | 88 | 1019.4 |
| 20260502031606 | 64 | 241 | 2.0 | 5.0 | 0.00 | 0.06 | 0.00 | 88 | 1019.5 |
| 20260502031506 | 64 | 241 | 2.0 | 5.0 | 0.00 | 0.06 | 0.00 | 88 | 1019.6 |
| 20260502031404 | 64 | 243 | 2.0 | 5.0 | 0.00 | 0.06 | 0.00 | 88 | 1019.6 |
| 20260502031105 | 64 | 272 | 1.0 | 5.0 | 0.00 | 0.06 | 0.00 | 88 | 1019.5 |
| 20260502030905 | 64 | 330 | 1.0 | 3.0 | 0.00 | 0.06 | 0.00 | 88 | 1019.5 |
| 20260502030806 | 64 | 330 | 1.0 | 3.0 | 0.00 | 0.06 | 0.00 | 88 | 1019.5 |
| 20260502030704 | 64 | 335 | 1.0 | 3.0 | 0.00 | 0.06 | 0.00 | 88 | 1019.5 |
| 20260502030605 | 64 | 239 | 1.0 | 3.0 | 0.00 | 0.06 | 0.00 | 88 | 1019.5 |
| 20260502030508 | 64 | 351 | 1.0 | 2.0 | 0.00 | 0.06 | 0.00 | 88 | 1019.5 |
| 20260502030406 | 64 | 351 | 1.0 | 2.0 | 0.00 | 0.06 | 0.00 | 88 | 1019.5 |
| 20260502030304 | 64 | 279 | 1.0 | 3.0 | 0.00 | 0.06 | 0.00 | 88 | 1019.5 |
| 20260502030204 | 64 | 279 | 1.0 | 3.0 | 0.00 | 0.06 | 0.00 | 88 | 1019.5 |
| 20260502030010 | 64 | 279 | 1.0 | 3.0 | 0.00 | 0.06 | 0.00 | 88 | 1019.4 |
| 20260502025805 | 64 | 222 | 1.0 | 3.0 | 0.00 | 0.06 | 0.00 | 88 | 1019.5 |
| 20260502025604 | 64 | 249 | 1.0 | 3.0 | 0.00 | 0.06 | 0.00 | 88 | 1019.5 |
| 20260502025506 | 64 | 249 | 1.0 | 3.0 | 0.00 | 0.06 | 0.00 | 88 | 1019.4 |
| 20260502025405 | 64 | 249 | 0.0 | 3.0 | 0.00 | 0.06 | 0.00 | 88 | 1019.5 |
| 20260502025306 | 64 | 313 | 0.0 | 3.0 | 0.00 | 0.06 | 0.00 | 88 | 1019.4 |
| 20260502025206 | 64 | 243 | 0.0 | 3.0 | 0.00 | 0.06 | 0.00 | 88 | 1019.4 |
| 20260502025105 | 64 | 243 | 0.0 | 2.0 | 0.00 | 0.06 | 0.00 | 88 | 1019.5 |
| 20260502025007 | 64 | 344 | 0.0 | 1.0 | 0.00 | 0.06 | 0.00 | 89 | 1019.4 |
| 20260502024805 | 64 | 344 | 0.0 | 0.0 | 0.00 | 0.06 | 0.00 | 89 | 1019.4 |
| 20260502024604 | 64 | 344 | 0.0 | 0.0 | 0.00 | 0.06 | 0.00 | 89 | 1019.4 |
| 20260502024507 | 64 | 344 | 0.0 | 0.0 | 0.00 | 0.06 | 0.00 | 89 | 1019.4 |
| 20260502024405 | 64 | 344 | 0.0 | 0.0 | 0.00 | 0.06 | 0.00 | 89 | 1019.3 |
| 20260502024307 | 64 | 344 | 0.0 | 0.0 | 0.00 | 0.06 | 0.00 | 89 | 1019.3 |
| 20260502024204 | 64 | 344 | 0.0 | 0.0 | 0.00 | 0.06 | 0.00 | 89 | 1019.4 |
| 20260502024104 | 64 | 344 | 0.0 | 0.0 | 0.00 | 0.06 | 0.00 | 89 | 1019.4 |
| 20260502024007 | 64 | 344 | 0.0 | 0.0 | 0.00 | 0.06 | 0.00 | 89 | 1019.4 |
| 20260502023905 | 64 | 344 | 0.0 | 0.0 | 0.00 | 0.06 | 0.00 | 89 | 1019.4 |
| 20260502023806 | 64 | 344 | 0.0 | 0.0 | 0.00 | 0.06 | 0.00 | 89 | 1019.4 |
| 20260502023705 | 64 | 291 | 0.0 | 0.0 | 0.00 | 0.06 | 0.00 | 89 | 1019.5 |
| 20260502023604 | 64 | 291 | 0.0 | 0.0 | 0.00 | 0.06 | 0.00 | 89 | 1019.5 |
| 20260502023506 | 64 | 291 | 0.0 | 0.0 | 0.00 | 0.06 | 0.00 | 89 | 1019.5 |
| 20260502023404 | 64 | 291 | 0.0 | 0.0 | 0.00 | 0.06 | 0.00 | 89 | 1019.5 |
| 20260502023304 | 64 | 291 | 0.0 | 0.0 | 0.00 | 0.06 | 0.00 | 89 | 1019.5 |
| 20260502023204 | 64 | 291 | 0.0 | 0.0 | 0.00 | 0.06 | 0.00 | 89 | 1019.5 |
| 20260502023105 | 64 | 291 | 0.0 | 0.0 | 0.00 | 0.06 | 0.00 | 89 | 1019.5 |
| 20260502023008 | 64 | 291 | 0.0 | 0.0 | 0.00 | 0.06 | 0.00 | 89 | 1019.5 |
| 20260502022805 | 64 | 291 | 0.0 | 0.0 | 0.00 | 0.06 | 0.00 | 89 | 1019.5 |
| 20260502022705 | 64 | 291 | 0.0 | 0.0 | 0.00 | 0.06 | 0.00 | 89 | 1019.5 |
| 20260502022606 | 64 | 291 | 0.0 | 0.0 | 0.00 | 0.06 | 0.00 | 89 | 1019.4 |
| 20260502022406 | 64 | 291 | 0.0 | 0.0 | 0.00 | 0.06 | 0.00 | 89 | 1019.5 |
| 20260502022306 | 64 | 291 | 0.0 | 0.0 | 0.00 | 0.06 | 0.00 | 89 | 1019.6 |
| 20260502022105 | 64 | 291 | 0.0 | 1.0 | 0.00 | 0.06 | 0.00 | 89 | 1019.5 |
| 20260502022010 | 64 | 291 | 0.0 | 1.0 | 0.00 | 0.06 | 0.00 | 89 | 1019.5 |
| 20260502021906 | 64 | 291 | 0.0 | 1.0 | 0.00 | 0.06 | 0.00 | 89 | 1019.5 |
| 20260502021805 | 64 | 291 | 0.0 | 1.0 | 0.00 | 0.06 | 0.00 | 89 | 1019.6 |
| 20260502021706 | 64 | 291 | 0.0 | 1.0 | 0.00 | 0.06 | 0.00 | 89 | 1019.6 |
| 20260502021604 | 64 | 291 | 0.0 | 1.0 | 0.00 | 0.06 | 0.00 | 89 | 1019.6 |
| 20260502021508 | 64 | 291 | 0.0 | 1.0 | 0.00 | 0.06 | 0.00 | 89 | 1019.6 |
| 20260502021405 | 64 | 291 | 1.0 | 2.0 | 0.00 | 0.06 | 0.00 | 89 | 1019.6 |
| 20260502021205 | 64 | 291 | 1.0 | 5.0 | 0.00 | 0.06 | 0.00 | 89 | 1019.6 |
| 20260502021105 | 64 | 291 | 1.0 | 5.0 | 0.00 | 0.06 | 0.00 | 89 | 1019.6 |
| 20260502021008 | 64 | 291 | 2.0 | 5.0 | 0.00 | 0.06 | 0.00 | 89 | 1019.7 |
| 20260502020804 | 64 | 291 | 2.0 | 5.0 | 0.00 | 0.06 | 0.00 | 89 | 1019.7 |
| 20260502020705 | 64 | 291 | 2.0 | 5.0 | 0.00 | 0.06 | 0.00 | 89 | 1019.7 |
| 20260502020604 | 64 | 291 | 2.0 | 5.0 | 0.00 | 0.06 | 0.00 | 89 | 1019.7 |
| 20260502020507 | 64 | 279 | 2.0 | 5.0 | 0.00 | 0.06 | 0.00 | 89 | 1019.7 |
| 20260502020305 | 64 | 319 | 2.0 | 5.0 | 0.00 | 0.06 | 0.00 | 89 | 1019.7 |
| 20260502020105 | 63 | 357 | 2.0 | 4.0 | 0.00 | 0.06 | 0.00 | 89 | 1019.8 |
| 20260502015805 | 63 | 291 | 1.0 | 4.0 | 0.00 | 0.06 | 0.00 | 89 | 1019.7 |
| 20260502015704 | 63 | 287 | 1.0 | 4.0 | 0.00 | 0.06 | 0.00 | 89 | 1019.6 |
| 20260502015604 | 63 | 335 | 1.0 | 4.0 | 0.00 | 0.06 | 0.00 | 89 | 1019.7 |
| 20260502015506 | 63 | 320 | 1.0 | 4.0 | 0.00 | 0.06 | 0.00 | 89 | 1019.6 |
| 20260502015405 | 63 | 345 | 1.0 | 4.0 | 0.00 | 0.06 | 0.00 | 89 | 1019.6 |
| 20260502015305 | 63 | 316 | 1.0 | 4.0 | 0.00 | 0.06 | 0.00 | 89 | 1019.6 |
| 20260502015206 | 63 | 347 | 1.0 | 4.0 | 0.00 | 0.06 | 0.00 | 89 | 1019.6 |
| 20260502015105 | 63 | 325 | 1.0 | 4.0 | 0.00 | 0.06 | 0.00 | 89 | 1019.7 |
| 20260502015008 | 63 | 257 | 1.0 | 3.0 | 0.00 | 0.06 | 0.00 | 89 | 1019.6 |
| 20260502014706 | 63 | 335 | 1.0 | 3.0 | 0.00 | 0.06 | 0.00 | 89 | 1019.6 |
| 20260502014605 | 63 | 335 | 1.0 | 3.0 | 0.00 | 0.06 | 0.00 | 89 | 1019.7 |
| 20260502014507 | 63 | 335 | 2.0 | 3.0 | 0.00 | 0.06 | 0.00 | 89 | 1019.7 |
| 20260502014404 | 63 | 335 | 2.0 | 3.0 | 0.00 | 0.06 | 0.00 | 89 | 1019.7 |
| 20260502014304 | 63 | 335 | 1.0 | 3.0 | 0.00 | 0.06 | 0.00 | 89 | 1019.7 |
| 20260502014206 | 63 | 9 | 1.0 | 3.0 | 0.00 | 0.06 | 0.00 | 89 | 1019.7 |
| 20260502014105 | 63 | 9 | 1.0 | 3.0 | 0.00 | 0.06 | 0.00 | 89 | 1019.7 |
| 20260502014008 | 63 | 293 | 1.0 | 3.0 | 0.00 | 0.06 | 0.00 | 89 | 1019.7 |
| 20260502013905 | 63 | 293 | 1.0 | 3.0 | 0.00 | 0.06 | 0.00 | 89 | 1019.7 |
| 20260502013806 | 63 | 271 | 1.0 | 4.0 | 0.00 | 0.06 | 0.00 | 89 | 1019.7 |
| 20260502013705 | 63 | 345 | 1.0 | 4.0 | 0.00 | 0.06 | 0.00 | 89 | 1019.7 |
| 20260502013605 | 63 | 264 | 1.0 | 5.0 | 0.00 | 0.06 | 0.00 | 89 | 1019.7 |
| 20260502013506 | 63 | 264 | 2.0 | 5.0 | 0.00 | 0.06 | 0.00 | 89 | 1019.7 |
| 20260502013404 | 63 | 227 | 2.0 | 5.0 | 0.00 | 0.06 | 0.00 | 89 | 1019.7 |
| 20260502013306 | 63 | 227 | 2.0 | 5.0 | 0.00 | 0.06 | 0.00 | 89 | 1019.7 |
| 20260502013107 | 63 | 227 | 2.0 | 5.0 | 0.00 | 0.06 | 0.00 | 89 | 1019.8 |
| 20260502013006 | 63 | 312 | 2.0 | 5.0 | 0.00 | 0.06 | 0.00 | 89 | 1019.8 |
| 20260502012905 | 63 | 282 | 2.0 | 5.0 | 0.00 | 0.06 | 0.00 | 89 | 1019.8 |
| 20260502012706 | 63 | 293 | 2.0 | 5.0 | 0.00 | 0.06 | 0.00 | 89 | 1019.7 |
| 20260502012605 | 64 | 2 | 2.0 | 4.0 | 0.00 | 0.06 | 0.00 | 89 | 1019.8 |
| 20260502012405 | 64 | 269 | 2.0 | 4.0 | 0.00 | 0.06 | 0.00 | 89 | 1019.8 |
| 20260502012306 | 64 | 270 | 2.0 | 4.0 | 0.00 | 0.06 | 0.00 | 89 | 1019.8 |
| 20260502012106 | 64 | 345 | 2.0 | 4.0 | 0.00 | 0.06 | 0.00 | 89 | 1019.8 |
| 20260502012009 | 64 | 352 | 2.0 | 4.0 | 0.00 | 0.06 | 0.00 | 89 | 1019.8 |
| 20260502011805 | 64 | 264 | 2.0 | 6.0 | 0.00 | 0.06 | 0.00 | 88 | 1019.8 |
| 20260502011705 | 64 | 289 | 2.0 | 6.0 | 0.00 | 0.06 | 0.00 | 88 | 1019.8 |
| 20260502011605 | 64 | 251 | 2.0 | 6.0 | 0.00 | 0.06 | 0.00 | 88 | 1020.0 |
| 20260502011506 | 64 | 268 | 2.0 | 6.0 | 0.00 | 0.06 | 0.00 | 88 | 1019.9 |
| 20260502011405 | 64 | 225 | 2.0 | 6.0 | 0.00 | 0.06 | 0.00 | 88 | 1019.9 |
| 20260502011305 | 64 | 279 | 2.0 | 6.0 | 0.00 | 0.06 | 0.00 | 88 | 1020.0 |
| 20260502011205 | 64 | 243 | 2.0 | 6.0 | 0.00 | 0.06 | 0.00 | 88 | 1019.9 |
| 20260502011106 | 64 | 275 | 2.0 | 6.0 | 0.00 | 0.06 | 0.00 | 88 | 1020.0 |
| 20260502011006 | 64 | 265 | 2.0 | 6.0 | 0.00 | 0.06 | 0.00 | 88 | 1020.0 |
| 20260502010804 | 64 | 245 | 1.0 | 4.0 | 0.00 | 0.06 | 0.00 | 88 | 1020.0 |
| 20260502010704 | 64 | 245 | 1.0 | 4.0 | 0.00 | 0.06 | 0.00 | 88 | 1020.0 |
| 20260502010605 | 64 | 246 | 1.0 | 3.0 | 0.00 | 0.06 | 0.00 | 88 | 1020.0 |
| 20260502010507 | 64 | 256 | 1.0 | 3.0 | 0.00 | 0.06 | 0.00 | 88 | 1020.0 |
| 20260502010406 | 64 | 256 | 1.0 | 3.0 | 0.00 | 0.06 | 0.00 | 88 | 1019.9 |
| 20260502010108 | 64 | 256 | 1.0 | 3.0 | 0.00 | 0.06 | 0.00 | 88 | 1020.0 |
| 20260502010011 | 64 | 256 | 1.0 | 3.0 | 0.00 | 0.06 | 0.00 | 88 | 1020.0 |
| 20260502005605 | 64 | 343 | 1.0 | 3.0 | 0.00 | 0.06 | 0.00 | 88 | 1020.1 |
| 20260502005507 | 64 | 343 | 1.0 | 3.0 | 0.00 | 0.06 | 0.00 | 88 | 1020.2 |
| 20260502005407 | 64 | 343 | 1.0 | 3.0 | 0.00 | 0.06 | 0.00 | 88 | 1020.1 |
| 20260502005306 | 64 | 343 | 1.0 | 3.0 | 0.00 | 0.06 | 0.00 | 88 | 1020.1 |
| 20260502005205 | 64 | 343 | 1.0 | 3.0 | 0.00 | 0.06 | 0.00 | 88 | 1020.2 |
| 20260502005105 | 64 | 343 | 1.0 | 3.0 | 0.00 | 0.06 | 0.00 | 88 | 1020.1 |
| 20260502005006 | 64 | 343 | 1.0 | 3.0 | 0.00 | 0.06 | 0.00 | 88 | 1020.1 |
| 20260502004905 | 64 | 343 | 1.0 | 3.0 | 0.00 | 0.06 | 0.00 | 88 | 1020.1 |
| 20260502004806 | 64 | 343 | 1.0 | 3.0 | 0.00 | 0.06 | 0.00 | 88 | 1020.1 |
| 20260502004705 | 64 | 343 | 1.0 | 3.0 | 0.00 | 0.06 | 0.00 | 88 | 1020.1 |
| 20260502004604 | 64 | 343 | 1.0 | 3.0 | 0.00 | 0.06 | 0.00 | 88 | 1020.1 |
| 20260502004507 | 64 | 343 | 1.0 | 3.0 | 0.00 | 0.06 | 0.00 | 88 | 1020.1 |
| 20260502004405 | 64 | 343 | 1.0 | 2.0 | 0.00 | 0.06 | 0.00 | 88 | 1020.0 |
| 20260502004304 | 64 | 343 | 1.0 | 2.0 | 0.00 | 0.06 | 0.00 | 88 | 1020.1 |
| 20260502004205 | 64 | 358 | 1.0 | 2.0 | 0.00 | 0.06 | 0.00 | 88 | 1020.0 |
| 20260502004105 | 64 | 358 | 1.0 | 2.0 | 0.00 | 0.06 | 0.00 | 88 | 1020.2 |
| 20260502003905 | 64 | 358 | 1.0 | 3.0 | 0.00 | 0.06 | 0.00 | 88 | 1020.0 |
| 20260502003806 | 64 | 358 | 1.0 | 3.0 | 0.00 | 0.06 | 0.00 | 88 | 1020.0 |
| 20260502003705 | 64 | 265 | 1.0 | 3.0 | 0.00 | 0.06 | 0.00 | 88 | 1020.1 |
| 20260502003606 | 64 | 265 | 1.0 | 3.0 | 0.00 | 0.06 | 0.00 | 88 | 1020.1 |
| 20260502003507 | 64 | 265 | 1.0 | 3.0 | 0.00 | 0.06 | 0.00 | 88 | 1020.1 |
| 20260502003406 | 64 | 265 | 1.0 | 3.0 | 0.00 | 0.06 | 0.00 | 88 | 1020.1 |
| 20260502003306 | 64 | 265 | 1.0 | 3.0 | 0.00 | 0.06 | 0.00 | 88 | 1020.0 |
| 20260502003205 | 64 | 265 | 1.0 | 3.0 | 0.00 | 0.06 | 0.00 | 88 | 1020.1 |
| 20260502003104 | 64 | 265 | 1.0 | 3.0 | 0.00 | 0.06 | 0.00 | 88 | 1020.2 |
| 20260502003008 | 64 | 265 | 1.0 | 3.0 | 0.00 | 0.06 | 0.00 | 88 | 1020.2 |
| 20260502002907 | 64 | 265 | 1.0 | 3.0 | 0.00 | 0.06 | 0.00 | 88 | 1020.2 |
| 20260502002805 | 64 | 265 | 1.0 | 2.0 | 0.00 | 0.06 | 0.00 | 88 | 1020.2 |
| 20260502002705 | 64 | 291 | 1.0 | 2.0 | 0.00 | 0.06 | 0.00 | 88 | 1020.2 |
| 20260502002604 | 64 | 314 | 1.0 | 2.0 | 0.00 | 0.06 | 0.00 | 88 | 1020.2 |
| 20260502002507 | 64 | 256 | 1.0 | 2.0 | 0.00 | 0.06 | 0.00 | 88 | 1020.2 |
| 20260502002405 | 64 | 256 | 1.0 | 2.0 | 0.00 | 0.06 | 0.00 | 88 | 1020.2 |
| 20260502002306 | 64 | 315 | 1.0 | 3.0 | 0.00 | 0.06 | 0.00 | 88 | 1020.2 |
| 20260502002107 | 64 | 238 | 1.0 | 3.0 | 0.00 | 0.06 | 0.00 | 88 | 1020.2 |
| 20260502002008 | 64 | 238 | 1.0 | 3.0 | 0.00 | 0.06 | 0.00 | 88 | 1020.3 |
| 20260502001904 | 64 | 237 | 1.0 | 3.0 | 0.00 | 0.06 | 0.00 | 88 | 1020.3 |
| 20260502001805 | 64 | 237 | 1.0 | 4.0 | 0.00 | 0.06 | 0.00 | 88 | 1020.2 |
| 20260502001706 | 64 | 335 | 1.0 | 4.0 | 0.00 | 0.06 | 0.00 | 88 | 1020.3 |
| 20260502001507 | 64 | 330 | 1.0 | 4.0 | 0.00 | 0.06 | 0.00 | 88 | 1020.4 |
| 20260502001404 | 64 | 335 | 1.0 | 4.0 | 0.00 | 0.06 | 0.00 | 88 | 1020.4 |
| 20260502001305 | 64 | 260 | 1.0 | 4.0 | 0.00 | 0.06 | 0.00 | 88 | 1020.5 |
| 20260502001106 | 64 | 235 | 1.0 | 4.0 | 0.00 | 0.06 | 0.00 | 88 | 1020.5 |
| 20260502001007 | 64 | 235 | 1.0 | 4.0 | 0.00 | 0.06 | 0.00 | 88 | 1020.5 |
| 20260502000904 | 64 | 356 | 1.0 | 3.0 | 0.00 | 0.06 | 0.00 | 88 | 1020.5 |
| 20260502000805 | 64 | 310 | 1.0 | 3.0 | 0.00 | 0.06 | 0.00 | 88 | 1020.5 |
| 20260502000508 | 64 | 307 | 1.0 | 3.0 | 0.00 | 0.06 | 0.00 | 88 | 1020.5 |
| 20260502000406 | 64 | 330 | 1.0 | 3.0 | 0.00 | 0.06 | 0.00 | 88 | 1020.6 |
| 20260502000304 | 64 | 251 | 1.0 | 3.0 | 0.00 | 0.06 | 0.00 | 88 | 1020.5 |
| 20260502000206 | 64 | 251 | 1.0 | 3.0 | 0.00 | 0.06 | 0.00 | 88 | 1020.6 |
| 20260502000105 | 64 | 251 | 1.0 | 3.0 | 0.00 | 0.06 | 0.00 | 88 | 1020.6 |
| 20260502000010 | 64 | 263 | 1.0 | 3.0 | 0.00 | 0.06 | 0.00 | 88 | 1020.6 |
| 20260501235905 | 64 | 241 | 1.0 | 3.0 | 0.00 | 0.06 | 0.00 | 88 | 1020.6 |
| 20260501235805 | 64 | 257 | 1.0 | 2.0 | 0.00 | 0.06 | 0.00 | 88 | 1020.6 |
| 20260501235604 | 64 | 279 | 1.0 | 2.0 | 0.00 | 0.06 | 0.00 | 88 | 1020.6 |
| 20260501235505 | 64 | 279 | 1.0 | 2.0 | 0.00 | 0.06 | 0.00 | 88 | 1020.6 |
| 20260501235404 | 64 | 279 | 1.0 | 2.0 | 0.00 | 0.06 | 0.00 | 88 | 1020.6 |
| 20260501235305 | 64 | 279 | 1.0 | 2.0 | 0.00 | 0.06 | 0.00 | 88 | 1020.7 |
| 20260501235204 | 64 | 279 | 1.0 | 2.0 | 0.00 | 0.06 | 0.00 | 88 | 1020.6 |
| 20260501235104 | 64 | 279 | 0.0 | 2.0 | 0.00 | 0.06 | 0.00 | 88 | 1020.7 |
| 20260501235007 | 64 | 330 | 0.0 | 2.0 | 0.00 | 0.06 | 0.00 | 88 | 1020.7 |
| 20260501234904 | 64 | 330 | 1.0 | 2.0 | 0.00 | 0.06 | 0.00 | 88 | 1020.7 |
| 20260501234803 | 64 | 330 | 1.0 | 2.0 | 0.00 | 0.06 | 0.00 | 88 | 1020.6 |
| 20260501234605 | 64 | 330 | 1.0 | 2.0 | 0.00 | 0.06 | 0.00 | 88 | 1020.7 |
| 20260501234507 | 64 | 330 | 1.0 | 3.0 | 0.00 | 0.06 | 0.00 | 88 | 1020.6 |
| 20260501234403 | 64 | 330 | 1.0 | 3.0 | 0.00 | 0.06 | 0.00 | 88 | 1020.7 |
| 20260501234306 | 64 | 330 | 1.0 | 3.0 | 0.00 | 0.06 | 0.00 | 88 | 1020.6 |
| 20260501234105 | 64 | 330 | 2.0 | 3.0 | 0.00 | 0.06 | 0.00 | 88 | 1020.7 |
| 20260501234007 | 64 | 330 | 2.0 | 4.0 | 0.00 | 0.06 | 0.00 | 88 | 1020.7 |
| 20260501233759 | 64 | 303 | 2.0 | 4.0 | 0.00 | 0.06 | 0.00 | 88 | 1020.8 |
| 20260501233659 | 64 | 210 | 1.0 | 4.0 | 0.00 | 0.06 | 0.00 | 88 | 1020.8 |
| 20260501233558 | 64 | 299 | 1.0 | 4.0 | 0.00 | 0.06 | 0.00 | 88 | 1020.8 |
| 20260501233502 | 64 | 299 | 1.0 | 4.0 | 0.00 | 0.06 | 0.00 | 88 | 1020.8 |
| 20260501233400 | 64 | 320 | 2.0 | 4.0 | 0.00 | 0.06 | 0.00 | 88 | 1020.9 |
| 20260501233259 | 64 | 344 | 2.0 | 4.0 | 0.00 | 0.06 | 0.00 | 88 | 1020.9 |
| 20260501233159 | 64 | 242 | 2.0 | 4.0 | 0.00 | 0.06 | 0.00 | 88 | 1020.8 |
| 20260501233059 | 64 | 279 | 2.0 | 4.0 | 0.00 | 0.06 | 0.00 | 88 | 1020.9 |
| 20260501233006 | 64 | 239 | 2.0 | 4.0 | 0.00 | 0.06 | 0.00 | 88 | 1020.8 |
| 20260501232907 | 64 | 349 | 2.0 | 4.0 | 0.00 | 0.06 | 0.00 | 88 | 1020.8 |
| 20260501232803 | 64 | 254 | 2.0 | 4.0 | 0.00 | 0.06 | 0.00 | 88 | 1020.8 |
| 20260501232704 | 64 | 277 | 2.0 | 4.0 | 0.00 | 0.06 | 0.00 | 88 | 1020.8 |
| 20260501232507 | 64 | 325 | 2.0 | 6.0 | 0.00 | 0.06 | 0.00 | 88 | 1020.9 |
| 20260501232404 | 64 | 357 | 2.0 | 6.0 | 0.00 | 0.06 | 0.00 | 88 | 1020.9 |
| 20260501232306 | 64 | 358 | 2.0 | 6.0 | 0.00 | 0.06 | 0.00 | 88 | 1020.9 |
| 20260501232103 | 64 | 299 | 2.0 | 6.0 | 0.00 | 0.06 | 0.00 | 88 | 1020.9 |
| 20260501232006 | 64 | 285 | 2.0 | 6.0 | 0.00 | 0.06 | 0.00 | 88 | 1020.8 |
| 20260501231904 | 64 | 245 | 2.0 | 6.0 | 0.00 | 0.06 | 0.00 | 88 | 1020.9 |
| 20260501231704 | 64 | 247 | 1.0 | 3.0 | 0.00 | 0.06 | 0.00 | 88 | 1020.9 |
| 20260501231403 | 64 | 277 | 1.0 | 3.0 | 0.00 | 0.06 | 0.00 | 88 | 1020.9 |
| 20260501231304 | 64 | 288 | 1.0 | 3.0 | 0.00 | 0.06 | 0.00 | 88 | 1020.9 |
| 20260501231203 | 64 | 288 | 1.0 | 3.0 | 0.00 | 0.06 | 0.00 | 88 | 1020.8 |
| 20260501231105 | 64 | 288 | 1.0 | 3.0 | 0.00 | 0.06 | 0.00 | 88 | 1020.9 |
| 20260501230903 | 64 | 304 | 1.0 | 3.0 | 0.00 | 0.06 | 0.00 | 88 | 1020.8 |
| 20260501230805 | 64 | 304 | 1.0 | 3.0 | 0.00 | 0.06 | 0.00 | 88 | 1020.8 |
| 20260501230604 | 64 | 304 | 1.0 | 3.0 | 0.00 | 0.06 | 0.00 | 87 | 1020.8 |
| 20260501230505 | 64 | 304 | 1.0 | 3.0 | 0.00 | 0.06 | 0.00 | 87 | 1020.7 |
| 20260501230403 | 64 | 304 | 1.0 | 3.0 | 0.00 | 0.06 | 0.00 | 87 | 1020.8 |
| 20260501230305 | 64 | 304 | 1.0 | 3.0 | 0.00 | 0.06 | 0.00 | 87 | 1020.8 |
| 20260501230204 | 64 | 304 | 1.0 | 3.0 | 0.00 | 0.06 | 0.00 | 87 | 1020.8 |
| 20260501230107 | 64 | 304 | 1.0 | 3.0 | 0.00 | 0.06 | 0.00 | 87 | 1020.7 |
| 20260501230008 | 64 | 304 | 1.0 | 3.0 | 0.00 | 0.06 | 0.00 | 87 | 1020.7 |
| 20260501225803 | 64 | 304 | 1.0 | 3.0 | 0.00 | 0.06 | 0.00 | 87 | 1020.8 |
| 20260501225703 | 64 | 304 | 1.0 | 4.0 | 0.00 | 0.06 | 0.00 | 87 | 1020.9 |
| 20260501225505 | 64 | 304 | 1.0 | 4.0 | 0.00 | 0.06 | 0.00 | 87 | 1020.8 |
| 20260501225403 | 64 | 304 | 1.0 | 4.0 | 0.00 | 0.06 | 0.00 | 87 | 1020.8 |
| 20260501225306 | 64 | 304 | 1.0 | 4.0 | 0.00 | 0.06 | 0.00 | 87 | 1020.8 |
| 20260501225103 | 64 | 304 | 1.0 | 4.0 | 0.00 | 0.06 | 0.00 | 87 | 1020.7 |
| 20260501225007 | 64 | 316 | 1.0 | 4.0 | 0.00 | 0.06 | 0.00 | 87 | 1020.8 |
| 20260501224805 | 64 | 303 | 1.0 | 4.0 | 0.00 | 0.06 | 0.00 | 87 | 1020.7 |
| 20260501224704 | 64 | 358 | 1.0 | 3.0 | 0.00 | 0.06 | 0.00 | 87 | 1020.7 |
| 20260501224605 | 64 | 358 | 1.0 | 3.0 | 0.00 | 0.06 | 0.00 | 87 | 1020.7 |
| 20260501224506 | 64 | 358 | 0.0 | 3.0 | 0.00 | 0.06 | 0.00 | 87 | 1020.8 |
| 20260501224404 | 64 | 358 | 0.0 | 3.0 | 0.00 | 0.06 | 0.00 | 87 | 1020.7 |
| 20260501224303 | 64 | 358 | 0.0 | 3.0 | 0.00 | 0.06 | 0.00 | 87 | 1020.8 |
| 20260501224205 | 64 | 309 | 1.0 | 2.0 | 0.00 | 0.06 | 0.00 | 87 | 1020.8 |
| 20260501224105 | 64 | 309 | 1.0 | 2.0 | 0.00 | 0.06 | 0.00 | 87 | 1020.8 |
| 20260501224007 | 64 | 309 | 1.0 | 2.0 | 0.00 | 0.06 | 0.00 | 86 | 1020.8 |
| 20260501223905 | 64 | 309 | 1.0 | 2.0 | 0.00 | 0.06 | 0.00 | 86 | 1020.8 |
| 20260501223705 | 65 | 309 | 1.0 | 2.0 | 0.00 | 0.06 | 0.00 | 86 | 1020.8 |
| 20260501223603 | 65 | 309 | 1.0 | 2.0 | 0.00 | 0.06 | 0.00 | 86 | 1020.8 |
| 20260501223506 | 65 | 309 | 1.0 | 2.0 | 0.00 | 0.06 | 0.00 | 86 | 1020.8 |
| 20260501223303 | 65 | 309 | 1.0 | 2.0 | 0.00 | 0.06 | 0.00 | 86 | 1020.7 |
| 20260501223205 | 65 | 309 | 1.0 | 2.0 | 0.00 | 0.06 | 0.00 | 86 | 1020.7 |
| 20260501223104 | 65 | 309 | 1.0 | 2.0 | 0.00 | 0.06 | 0.00 | 86 | 1020.8 |
| 20260501223006 | 65 | 309 | 1.0 | 3.0 | 0.00 | 0.06 | 0.00 | 87 | 1020.8 |
| 20260501222903 | 65 | 309 | 1.0 | 3.0 | 0.00 | 0.06 | 0.00 | 86 | 1020.7 |
| 20260501222804 | 65 | 309 | 1.0 | 3.0 | 0.00 | 0.06 | 0.00 | 86 | 1020.7 |
| 20260501222706 | 65 | 309 | 1.0 | 3.0 | 0.00 | 0.06 | 0.00 | 86 | 1020.7 |
| 20260501222603 | 65 | 309 | 1.0 | 3.0 | 0.00 | 0.06 | 0.00 | 86 | 1020.8 |
| 20260501222506 | 65 | 309 | 1.0 | 3.0 | 0.00 | 0.06 | 0.00 | 86 | 1020.8 |
| 20260501222103 | 65 | 321 | 1.0 | 3.0 | 0.00 | 0.06 | 0.00 | 86 | 1020.8 |
| 20260501222007 | 65 | 275 | 1.0 | 3.0 | 0.00 | 0.06 | 0.00 | 86 | 1020.8 |
| 20260501221903 | 65 | 346 | 1.0 | 3.0 | 0.00 | 0.06 | 0.00 | 86 | 1020.8 |
| 20260501221804 | 65 | 346 | 1.0 | 3.0 | 0.00 | 0.06 | 0.00 | 86 | 1020.8 |
| 20260501221704 | 65 | 346 | 1.0 | 3.0 | 0.00 | 0.06 | 0.00 | 86 | 1020.9 |
| 20260501221605 | 65 | 298 | 1.0 | 3.0 | 0.00 | 0.06 | 0.00 | 86 | 1020.9 |
| 20260501221509 | 65 | 298 | 1.0 | 3.0 | 0.00 | 0.06 | 0.00 | 86 | 1020.8 |
| 20260501221303 | 65 | 298 | 1.0 | 3.0 | 0.00 | 0.06 | 0.00 | 86 | 1020.9 |
| 20260501221205 | 65 | 298 | 2.0 | 3.0 | 0.00 | 0.06 | 0.00 | 86 | 1020.9 |
| 20260501221104 | 65 | 298 | 2.0 | 3.0 | 0.00 | 0.06 | 0.00 | 86 | 1021.0 |
| 20260501221007 | 65 | 325 | 2.0 | 3.0 | 0.00 | 0.06 | 0.00 | 86 | 1020.9 |
| 20260501220904 | 65 | 325 | 2.0 | 3.0 | 0.00 | 0.06 | 0.00 | 86 | 1021.0 |
| 20260501220705 | 65 | 325 | 1.0 | 3.0 | 0.00 | 0.06 | 0.00 | 87 | 1021.0 |
| 20260501220604 | 65 | 285 | 1.0 | 3.0 | 0.00 | 0.06 | 0.00 | 87 | 1020.9 |
| 20260501220405 | 65 | 320 | 1.0 | 3.0 | 0.00 | 0.06 | 0.00 | 87 | 1021.0 |
| 20260501220307 | 65 | 320 | 1.0 | 3.0 | 0.00 | 0.06 | 0.00 | 87 | 1020.9 |
| 20260501220206 | 65 | 320 | 1.0 | 3.0 | 0.00 | 0.06 | 0.00 | 87 | 1020.9 |
| 20260501220009 | 65 | 320 | 0.0 | 2.0 | 0.00 | 0.06 | 0.06 | 87 | 1020.9 |
| 20260501215706 | 65 | 320 | 0.0 | 2.0 | 0.00 | 0.06 | 0.06 | 87 | 1020.9 |
| 20260501215605 | 65 | 320 | 0.0 | 2.0 | 0.00 | 0.06 | 0.06 | 87 | 1021.0 |
| 20260501215405 | 65 | 320 | 0.0 | 2.0 | 0.00 | 0.06 | 0.06 | 87 | 1021.0 |
| 20260501215108 | 65 | 320 | 0.0 | 0.0 | 0.00 | 0.06 | 0.06 | 87 | 1021.1 |
| 20260501215008 | 65 | 320 | 0.0 | 0.0 | 0.00 | 0.06 | 0.06 | 87 | 1021.1 |
| 20260501214907 | 65 | 320 | 0.0 | 0.0 | 0.00 | 0.06 | 0.06 | 87 | 1021.0 |
| 20260501214806 | 65 | 320 | 0.0 | 0.0 | 0.00 | 0.06 | 0.06 | 87 | 1021.0 |
| 20260501214706 | 65 | 320 | 0.0 | 0.0 | 0.00 | 0.06 | 0.06 | 87 | 1021.0 |
| 20260501214607 | 65 | 320 | 0.0 | 0.0 | 0.00 | 0.06 | 0.06 | 87 | 1021.0 |
| 20260501214508 | 65 | 320 | 0.0 | 0.0 | 0.00 | 0.06 | 0.06 | 87 | 1021.1 |
| 20260501214407 | 65 | 320 | 0.0 | 0.0 | 0.00 | 0.06 | 0.06 | 87 | 1021.1 |
| 20260501214305 | 65 | 320 | 0.0 | 0.0 | 0.00 | 0.06 | 0.06 | 87 | 1021.1 |
| 20260501214206 | 65 | 320 | 0.0 | 0.0 | 0.00 | 0.06 | 0.06 | 87 | 1021.0 |
| 20260501214106 | 65 | 320 | 0.0 | 0.0 | 0.00 | 0.06 | 0.06 | 87 | 1021.1 |
| 20260501214009 | 65 | 320 | 0.0 | 0.0 | 0.00 | 0.06 | 0.06 | 87 | 1021.0 |
| 20260501213906 | 64 | 320 | 0.0 | 0.0 | 0.00 | 0.06 | 0.06 | 87 | 1021.2 |
| 20260501213806 | 64 | 320 | 0.0 | 0.0 | 0.00 | 0.06 | 0.06 | 87 | 1021.1 |
| 20260501213706 | 65 | 320 | 0.0 | 0.0 | 0.00 | 0.06 | 0.06 | 87 | 1021.1 |
| 20260501213507 | 64 | 320 | 0.0 | 0.0 | 0.00 | 0.06 | 0.06 | 87 | 1021.1 |
| 20260501213405 | 65 | 320 | 0.0 | 0.0 | 0.00 | 0.06 | 0.06 | 87 | 1021.0 |
| 20260501213305 | 64 | 320 | 0.0 | 0.0 | 0.00 | 0.06 | 0.06 | 87 | 1021.1 |
| 20260501213205 | 64 | 320 | 0.0 | 0.0 | 0.00 | 0.06 | 0.06 | 87 | 1021.0 |
| 20260501213106 | 64 | 320 | 0.0 | 0.0 | 0.00 | 0.06 | 0.06 | 87 | 1021.1 |
| 20260501213008 | 64 | 320 | 0.0 | 0.0 | 0.00 | 0.06 | 0.06 | 87 | 1021.1 |
| 20260501212807 | 64 | 320 | 0.0 | 0.0 | 0.00 | 0.06 | 0.06 | 87 | 1021.1 |
| 20260501212705 | 64 | 320 | 0.0 | 0.0 | 0.00 | 0.06 | 0.06 | 87 | 1021.1 |
| 20260501212508 | 64 | 320 | 0.0 | 0.0 | 0.00 | 0.06 | 0.06 | 87 | 1021.2 |
| 20260501212206 | 64 | 320 | 0.0 | 0.0 | 0.00 | 0.06 | 0.06 | 87 | 1021.1 |
| 20260501212008 | 64 | 320 | 0.0 | 0.0 | 0.00 | 0.06 | 0.06 | 87 | 1021.1 |
| 20260501211907 | 65 | 320 | 0.0 | 0.0 | 0.00 | 0.06 | 0.06 | 87 | 1021.1 |
| 20260501211806 | 65 | 320 | 0.0 | 0.0 | 0.00 | 0.06 | 0.06 | 87 | 1021.1 |
| 20260501211705 | 65 | 320 | 0.0 | 0.0 | 0.00 | 0.06 | 0.06 | 87 | 1021.2 |
| 20260501211507 | 64 | 320 | 0.0 | 0.0 | 0.00 | 0.06 | 0.06 | 87 | 1021.1 |
| 20260501211407 | 64 | 320 | 0.0 | 0.0 | 0.00 | 0.06 | 0.06 | 87 | 1021.2 |
| 20260501211306 | 64 | 320 | 0.0 | 0.0 | 0.00 | 0.06 | 0.06 | 87 | 1021.1 |
| 20260501211205 | 64 | 320 | 0.0 | 0.0 | 0.00 | 0.06 | 0.06 | 87 | 1021.2 |
| 20260501211106 | 64 | 320 | 0.0 | 0.0 | 0.00 | 0.06 | 0.06 | 87 | 1021.2 |
| 20260501210906 | 65 | 320 | 0.0 | 0.0 | 0.00 | 0.06 | 0.06 | 86 | 1021.3 |
| 20260501210806 | 65 | 320 | 0.0 | 0.0 | 0.00 | 0.06 | 0.06 | 86 | 1021.4 |
| 20260501210607 | 65 | 320 | 0.0 | 0.0 | 0.00 | 0.06 | 0.06 | 86 | 1021.3 |
| 20260501210510 | 65 | 320 | 0.0 | 0.0 | 0.00 | 0.06 | 0.06 | 86 | 1021.4 |
| 20260501210406 | 65 | 320 | 0.0 | 1.0 | 0.00 | 0.06 | 0.06 | 86 | 1021.3 |
| 20260501210307 | 65 | 320 | 0.0 | 1.0 | 0.00 | 0.06 | 0.06 | 86 | 1021.3 |
| 20260501210207 | 65 | 320 | 0.0 | 1.0 | 0.00 | 0.06 | 0.06 | 86 | 1021.3 |
| 20260501210106 | 65 | 320 | 0.0 | 1.0 | 0.00 | 0.06 | 0.06 | 86 | 1021.3 |
| 20260501210007 | 65 | 320 | 0.0 | 2.0 | 0.00 | 0.06 | 0.06 | 86 | 1021.3 |
| 20260501205906 | 65 | 320 | 0.0 | 2.0 | 0.00 | 0.06 | 0.06 | 86 | 1021.3 |
| 20260501205808 | 65 | 320 | 1.0 | 2.0 | 0.00 | 0.06 | 0.06 | 87 | 1021.3 |
| 20260501205607 | 65 | 320 | 1.0 | 3.0 | 0.00 | 0.06 | 0.06 | 86 | 1021.3 |
| 20260501205507 | 65 | 320 | 1.0 | 3.0 | 0.00 | 0.06 | 0.06 | 86 | 1021.3 |
| 20260501205405 | 65 | 320 | 1.0 | 3.0 | 0.00 | 0.06 | 0.06 | 86 | 1021.3 |
| 20260501205306 | 65 | 320 | 1.0 | 3.0 | 0.00 | 0.06 | 0.06 | 87 | 1021.2 |
| 20260501205206 | 65 | 320 | 1.0 | 3.0 | 0.00 | 0.06 | 0.06 | 86 | 1021.3 |
| 20260501205107 | 65 | 320 | 1.0 | 3.0 | 0.00 | 0.06 | 0.06 | 86 | 1021.3 |
| 20260501205009 | 65 | 320 | 1.0 | 3.0 | 0.00 | 0.06 | 0.06 | 86 | 1021.3 |
| 20260501204907 | 65 | 320 | 1.0 | 3.0 | 0.00 | 0.06 | 0.06 | 86 | 1021.3 |
| 20260501204706 | 65 | 335 | 0.0 | 3.0 | 0.00 | 0.06 | 0.06 | 86 | 1021.2 |
| 20260501204606 | 65 | 23 | 0.0 | 2.0 | 0.00 | 0.06 | 0.06 | 86 | 1021.2 |
| 20260501204406 | 65 | 23 | 0.0 | 0.0 | 0.00 | 0.06 | 0.06 | 86 | 1021.2 |
| 20260501204307 | 65 | 23 | 0.0 | 0.0 | 0.00 | 0.06 | 0.06 | 86 | 1021.1 |
| 20260501204208 | 65 | 23 | 0.0 | 0.0 | 0.00 | 0.06 | 0.06 | 86 | 1021.2 |
| 20260501204106 | 65 | 23 | 0.0 | 0.0 | 0.00 | 0.06 | 0.06 | 86 | 1021.2 |
| 20260501204008 | 65 | 23 | 0.0 | 1.0 | 0.00 | 0.06 | 0.06 | 86 | 1021.2 |
| 20260501203906 | 65 | 23 | 0.0 | 2.0 | 0.00 | 0.06 | 0.06 | 86 | 1021.1 |
| 20260501203807 | 65 | 23 | 1.0 | 2.0 | 0.00 | 0.06 | 0.06 | 86 | 1021.2 |
| 20260501203706 | 65 | 23 | 1.0 | 3.0 | 0.00 | 0.06 | 0.06 | 86 | 1021.1 |
| 20260501203605 | 65 | 23 | 1.0 | 3.0 | 0.00 | 0.06 | 0.06 | 86 | 1021.2 |
| 20260501203508 | 65 | 23 | 1.0 | 4.0 | 0.00 | 0.06 | 0.06 | 86 | 1021.2 |
| 20260501203406 | 65 | 23 | 2.0 | 4.0 | 0.00 | 0.06 | 0.06 | 86 | 1021.2 |
| 20260501203308 | 65 | 23 | 2.0 | 4.0 | 0.00 | 0.06 | 0.06 | 86 | 1021.2 |
| 20260501203206 | 65 | 23 | 2.0 | 4.0 | 0.00 | 0.06 | 0.06 | 86 | 1021.2 |
| 20260501203009 | 65 | 23 | 2.0 | 4.0 | 0.00 | 0.06 | 0.06 | 86 | 1021.1 |
| 20260501202905 | 65 | 23 | 1.0 | 4.0 | 0.00 | 0.06 | 0.06 | 86 | 1021.1 |
| 20260501202806 | 65 | 23 | 1.0 | 4.0 | 0.00 | 0.06 | 0.06 | 86 | 1021.1 |
| 20260501202407 | 65 | 55 | 1.0 | 4.0 | 0.00 | 0.06 | 0.06 | 86 | 1021.1 |
| 20260501202306 | 65 | 55 | 1.0 | 3.0 | 0.00 | 0.06 | 0.06 | 86 | 1021.1 |
| 20260501202207 | 65 | 55 | 1.0 | 3.0 | 0.00 | 0.06 | 0.06 | 86 | 1021.0 |
| 20260501202105 | 65 | 55 | 1.0 | 3.0 | 0.00 | 0.06 | 0.06 | 86 | 1021.1 |
| 20260501201907 | 65 | 55 | 1.0 | 3.0 | 0.00 | 0.06 | 0.06 | 86 | 1021.1 |
| 20260501201807 | 65 | 55 | 2.0 | 3.0 | 0.00 | 0.06 | 0.06 | 86 | 1021.1 |
| 20260501201705 | 65 | 55 | 2.0 | 4.0 | 0.00 | 0.06 | 0.06 | 86 | 1021.1 |
| 20260501201605 | 65 | 55 | 2.0 | 4.0 | 0.00 | 0.06 | 0.06 | 86 | 1021.1 |
| 20260501201507 | 65 | 55 | 2.0 | 4.0 | 0.00 | 0.06 | 0.06 | 86 | 1021.1 |
| 20260501201405 | 65 | 55 | 2.0 | 4.0 | 0.00 | 0.06 | 0.06 | 86 | 1021.1 |
| 20260501201308 | 65 | 64 | 2.0 | 4.0 | 0.00 | 0.06 | 0.06 | 86 | 1021.0 |
| 20260501201210 | 65 | 64 | 3.0 | 4.0 | 0.00 | 0.06 | 0.06 | 86 | 1021.1 |
| 20260501201009 | 65 | 52 | 3.0 | 4.0 | 0.00 | 0.06 | 0.06 | 86 | 1021.0 |
| 20260501200905 | 65 | 60 | 3.0 | 5.0 | 0.00 | 0.06 | 0.06 | 86 | 1020.9 |
| 20260501200706 | 65 | 29 | 2.0 | 5.0 | 0.00 | 0.06 | 0.06 | 86 | 1020.9 |
| 20260501200607 | 65 | 46 | 2.0 | 5.0 | 0.00 | 0.06 | 0.06 | 86 | 1020.9 |
| 20260501200509 | 65 | 58 | 2.0 | 5.0 | 0.00 | 0.06 | 0.06 | 86 | 1020.9 |
| 20260501200406 | 65 | 60 | 2.0 | 5.0 | 0.00 | 0.06 | 0.06 | 86 | 1020.9 |
| 20260501200306 | 65 | 77 | 3.0 | 5.0 | 0.00 | 0.06 | 0.06 | 86 | 1020.9 |
| 20260501200105 | 65 | 53 | 3.0 | 6.0 | 0.00 | 0.06 | 0.06 | 86 | 1020.8 |
| 20260501200022 | 65 | 59 | 3.0 | 5.0 | 0.00 | 0.06 | 0.06 | 86 | 1020.8 |
| 20260501195906 | 65 | 59 | 2.0 | 6.0 | 0.00 | 0.06 | 0.06 | 86 | 1020.8 |
| 20260501195805 | 65 | 74 | 3.0 | 5.0 | 0.00 | 0.06 | 0.06 | 86 | 1020.9 |
| 20260501195707 | 65 | 52 | 3.0 | 5.0 | 0.00 | 0.06 | 0.06 | 86 | 1020.8 |
| 20260501195509 | 65 | 58 | 3.0 | 5.0 | 0.00 | 0.06 | 0.06 | 86 | 1020.7 |
| 20260501195407 | 65 | 75 | 2.0 | 5.0 | 0.00 | 0.06 | 0.06 | 86 | 1020.8 |
| 20260501195207 | 65 | 52 | 2.0 | 6.0 | 0.00 | 0.06 | 0.06 | 86 | 1020.7 |
| 20260501195106 | 65 | 76 | 2.0 | 6.0 | 0.00 | 0.06 | 0.06 | 86 | 1020.6 |
| 20260501194812 | 65 | 39 | 2.0 | 5.0 | 0.00 | 0.06 | 0.06 | 86 | 1020.7 |
| 20260501194707 | 65 | 58 | 2.0 | 5.0 | 0.00 | 0.06 | 0.06 | 86 | 1020.6 |
| 20260501194607 | 65 | 66 | 2.0 | 5.0 | 0.00 | 0.06 | 0.06 | 86 | 1020.6 |
| 20260501194307 | 65 | 66 | 4.0 | 8.0 | 0.00 | 0.06 | 0.06 | 86 | 1020.6 |
| 20260501194205 | 65 | 66 | 4.0 | 9.0 | 0.00 | 0.06 | 0.06 | 86 | 1020.6 |
| 20260501194107 | 65 | 66 | 3.0 | 9.0 | 0.00 | 0.06 | 0.06 | 86 | 1020.5 |
| 20260501193907 | 65 | 66 | 3.0 | 9.0 | 0.00 | 0.06 | 0.06 | 86 | 1020.5 |
| 20260501193806 | 65 | 18 | 3.0 | 9.0 | 0.00 | 0.06 | 0.06 | 86 | 1020.6 |
| 20260501193706 | 65 | 71 | 3.0 | 9.0 | 0.00 | 0.06 | 0.06 | 86 | 1020.6 |
| 20260501193606 | 65 | 57 | 3.0 | 9.0 | 0.00 | 0.06 | 0.06 | 86 | 1020.5 |
| 20260501193509 | 65 | 68 | 2.0 | 9.0 | 0.00 | 0.06 | 0.06 | 86 | 1020.6 |
| 20260501193407 | 65 | 61 | 2.0 | 9.0 | 0.00 | 0.06 | 0.06 | 86 | 1020.6 |
| 20260501193307 | 65 | 52 | 2.0 | 8.0 | 0.00 | 0.06 | 0.06 | 86 | 1020.6 |
| 20260501193211 | 65 | 73 | 2.0 | 7.0 | 0.00 | 0.06 | 0.06 | 86 | 1020.6 |
| 20260501193106 | 65 | 70 | 2.0 | 5.0 | 0.00 | 0.06 | 0.06 | 86 | 1020.5 |
| 20260501193009 | 65 | 351 | 2.0 | 5.0 | 0.00 | 0.06 | 0.06 | 86 | 1020.5 |
| 20260501192907 | 65 | 42 | 3.0 | 8.0 | 0.00 | 0.06 | 0.06 | 86 | 1020.5 |
| 20260501192812 | 65 | 42 | 3.0 | 8.0 | 0.00 | 0.06 | 0.06 | 86 | 1020.5 |
| 20260501192706 | 65 | 49 | 3.0 | 8.0 | 0.00 | 0.06 | 0.06 | 85 | 1020.4 |
| 20260501192606 | 65 | 66 | 3.0 | 8.0 | 0.00 | 0.06 | 0.06 | 85 | 1020.4 |
| 20260501192508 | 65 | 66 | 3.0 | 8.0 | 0.00 | 0.06 | 0.06 | 85 | 1020.4 |
| 20260501192407 | 65 | 51 | 4.0 | 8.0 | 0.00 | 0.06 | 0.06 | 85 | 1020.4 |
| 20260501192306 | 65 | 52 | 4.0 | 8.0 | 0.00 | 0.06 | 0.06 | 85 | 1020.3 |
| 20260501192205 | 65 | 63 | 4.0 | 8.0 | 0.00 | 0.06 | 0.06 | 85 | 1020.3 |
| 20260501192106 | 65 | 34 | 4.0 | 8.0 | 0.00 | 0.06 | 0.06 | 85 | 1020.4 |
| 20260501192011 | 65 | 72 | 4.0 | 7.0 | 0.00 | 0.06 | 0.06 | 85 | 1020.3 |
| 20260501191906 | 65 | 60 | 4.0 | 9.0 | 0.00 | 0.06 | 0.06 | 85 | 1020.2 |
| 20260501191707 | 65 | 58 | 5.0 | 9.0 | 0.00 | 0.06 | 0.06 | 85 | 1020.3 |
| 20260501191605 | 65 | 66 | 5.0 | 9.0 | 0.00 | 0.06 | 0.06 | 85 | 1020.2 |
| 20260501191509 | 65 | 357 | 5.0 | 9.0 | 0.00 | 0.06 | 0.06 | 85 | 1020.2 |
| 20260501191406 | 65 | 45 | 5.0 | 9.0 | 0.00 | 0.06 | 0.06 | 85 | 1020.1 |
| 20260501191305 | 65 | 56 | 5.0 | 10.0 | 0.00 | 0.06 | 0.06 | 85 | 1020.2 |
| 20260501191212 | 65 | 58 | 5.0 | 10.0 | 0.00 | 0.06 | 0.06 | 85 | 1020.2 |
| 20260501191106 | 65 | 71 | 5.0 | 10.0 | 0.00 | 0.06 | 0.06 | 85 | 1020.2 |
| 20260501190806 | 65 | 54 | 4.0 | 10.0 | 0.00 | 0.06 | 0.06 | 85 | 1020.0 |
| 20260501190508 | 65 | 23 | 3.0 | 9.0 | 0.00 | 0.06 | 0.06 | 85 | 1020.1 |
| 20260501190406 | 65 | 75 | 3.0 | 9.0 | 0.00 | 0.06 | 0.06 | 85 | 1020.1 |
| 20260501190207 | 66 | 108 | 3.0 | 6.0 | 0.00 | 0.06 | 0.06 | 85 | 1020.2 |
| 20260501190106 | 66 | 77 | 3.0 | 8.0 | 0.00 | 0.06 | 0.06 | 85 | 1020.1 |
| 20260501185906 | 65 | 50 | 3.0 | 9.0 | 0.00 | 0.06 | 0.06 | 85 | 1020.1 |
| 20260501185806 | 65 | 101 | 4.0 | 9.0 | 0.00 | 0.06 | 0.06 | 84 | 1020.1 |
| 20260501185709 | 65 | 101 | 4.0 | 9.0 | 0.00 | 0.06 | 0.06 | 84 | 1020.2 |
| 20260501185606 | 65 | 77 | 4.0 | 9.0 | 0.00 | 0.06 | 0.06 | 84 | 1020.2 |
| 20260501185406 | 65 | 87 | 5.0 | 9.0 | 0.00 | 0.06 | 0.06 | 84 | 1020.2 |
| 20260501185306 | 66 | 47 | 4.0 | 9.0 | 0.00 | 0.06 | 0.06 | 84 | 1020.1 |
| 20260501185206 | 66 | 41 | 4.0 | 9.0 | 0.00 | 0.06 | 0.06 | 84 | 1020.1 |
| 20260501185106 | 66 | 56 | 4.0 | 9.0 | 0.00 | 0.06 | 0.06 | 84 | 1020.1 |
| 20260501184807 | 66 | 71 | 4.0 | 9.0 | 0.00 | 0.06 | 0.06 | 84 | 1020.2 |
| 20260501184708 | 66 | 22 | 3.0 | 9.0 | 0.00 | 0.06 | 0.06 | 84 | 1020.2 |
| 20260501184507 | 66 | 54 | 2.0 | 9.0 | 0.00 | 0.06 | 0.06 | 84 | 1020.2 |
| 20260501184406 | 66 | 137 | 2.0 | 7.0 | 0.00 | 0.06 | 0.06 | 84 | 1020.2 |
| 20260501184307 | 66 | 68 | 2.0 | 7.0 | 0.00 | 0.06 | 0.06 | 84 | 1020.2 |
| 20260501184206 | 66 | 68 | 2.0 | 7.0 | 0.00 | 0.06 | 0.06 | 83 | 1020.1 |
| 20260501184106 | 66 | 68 | 2.0 | 7.0 | 0.00 | 0.06 | 0.06 | 83 | 1020.1 |
| 20260501184011 | 66 | 48 | 2.0 | 7.0 | 0.00 | 0.06 | 0.06 | 84 | 1020.1 |
| 20260501183906 | 66 | 54 | 2.0 | 7.0 | 0.00 | 0.06 | 0.06 | 83 | 1020.0 |
| 20260501183806 | 66 | 58 | 2.0 | 6.0 | 0.00 | 0.06 | 0.06 | 84 | 1020.1 |
| 20260501183607 | 66 | 39 | 2.0 | 6.0 | 0.00 | 0.06 | 0.06 | 83 | 1020.1 |
| 20260501183508 | 66 | 25 | 2.0 | 6.0 | 0.00 | 0.06 | 0.06 | 83 | 1020.1 |
| 20260501183406 | 66 | 50 | 3.0 | 6.0 | 0.00 | 0.06 | 0.06 | 83 | 1020.1 |
| 20260501183305 | 66 | 45 | 3.0 | 6.0 | 0.00 | 0.06 | 0.06 | 83 | 1020.1 |
| 20260501183205 | 66 | 44 | 3.0 | 9.0 | 0.00 | 0.06 | 0.06 | 83 | 1020.1 |
| 20260501183011 | 66 | 25 | 4.0 | 9.0 | 0.00 | 0.06 | 0.06 | 83 | 1020.1 |
| 20260501182906 | 66 | 62 | 4.0 | 9.0 | 0.00 | 0.06 | 0.06 | 83 | 1020.1 |
| 20260501182806 | 66 | 52 | 4.0 | 9.0 | 0.00 | 0.06 | 0.06 | 83 | 1020.1 |
| 20260501182709 | 66 | 27 | 4.0 | 9.0 | 0.00 | 0.06 | 0.06 | 83 | 1020.1 |
| 20260501182605 | 66 | 360 | 4.0 | 9.0 | 0.00 | 0.06 | 0.06 | 82 | 1020.0 |
| 20260501182507 | 66 | 58 | 4.0 | 9.0 | 0.00 | 0.06 | 0.06 | 82 | 1020.1 |
| 20260501182406 | 66 | 42 | 3.0 | 9.0 | 0.00 | 0.06 | 0.06 | 82 | 1020.1 |
| 20260501182307 | 66 | 60 | 3.0 | 9.0 | 0.00 | 0.06 | 0.06 | 82 | 1020.1 |
| 20260501182207 | 66 | 52 | 3.0 | 9.0 | 0.00 | 0.06 | 0.06 | 82 | 1020.0 |
| 20260501181906 | 66 | 31 | 3.0 | 9.0 | 0.00 | 0.06 | 0.06 | 82 | 1019.9 |
| 20260501181708 | 66 | 64 | 3.0 | 9.0 | 0.00 | 0.06 | 0.06 | 82 | 1019.8 |
| 20260501181605 | 66 | 29 | 3.0 | 9.0 | 0.00 | 0.06 | 0.06 | 82 | 1019.9 |
| 20260501181507 | 66 | 22 | 3.0 | 9.0 | 0.00 | 0.06 | 0.06 | 81 | 1019.9 |
| 20260501181406 | 66 | 22 | 3.0 | 9.0 | 0.00 | 0.06 | 0.06 | 81 | 1019.9 |
| 20260501181207 | 66 | 320 | 3.0 | 9.0 | 0.00 | 0.06 | 0.06 | 81 | 1019.9 |
| 20260501181108 | 67 | 24 | 2.0 | 9.0 | 0.00 | 0.06 | 0.06 | 81 | 1019.9 |
| 20260501181008 | 67 | 40 | 2.0 | 8.0 | 0.00 | 0.06 | 0.06 | 81 | 1019.9 |
| 20260501180905 | 67 | 309 | 2.0 | 8.0 | 0.00 | 0.06 | 0.06 | 81 | 1019.9 |
| 20260501180806 | 67 | 79 | 2.0 | 7.0 | 0.00 | 0.06 | 0.06 | 81 | 1019.9 |
| 20260501180706 | 67 | 38 | 2.0 | 7.0 | 0.00 | 0.06 | 0.06 | 81 | 1019.9 |
| 20260501180605 | 67 | 342 | 2.0 | 7.0 | 0.00 | 0.06 | 0.06 | 80 | 1019.8 |
| 20260501180507 | 67 | 17 | 2.0 | 7.0 | 0.00 | 0.06 | 0.06 | 80 | 1019.9 |
| 20260501180407 | 67 | 356 | 2.0 | 7.0 | 0.00 | 0.06 | 0.06 | 80 | 1019.9 |
| 20260501180306 | 67 | 73 | 2.0 | 7.0 | 0.00 | 0.06 | 0.06 | 80 | 1019.8 |
| 20260501180205 | 67 | 78 | 2.0 | 7.0 | 0.00 | 0.06 | 0.06 | 80 | 1019.8 |
| 20260501180106 | 67 | 83 | 2.0 | 7.0 | 0.00 | 0.06 | 0.06 | 80 | 1019.9 |
| 20260501180010 | 67 | 47 | 2.0 | 6.0 | 0.00 | 0.06 | 0.06 | 79 | 1019.8 |
| 20260501175905 | 67 | 50 | 2.0 | 6.0 | 0.00 | 0.06 | 0.06 | 79 | 1019.8 |
| 20260501175806 | 67 | 39 | 2.0 | 6.0 | 0.00 | 0.06 | 0.06 | 80 | 1019.8 |
| 20260501175706 | 67 | 291 | 2.0 | 6.0 | 0.00 | 0.06 | 0.06 | 79 | 1019.8 |
| 20260501175606 | 67 | 291 | 3.0 | 6.0 | 0.00 | 0.06 | 0.06 | 79 | 1019.8 |
| 20260501175307 | 66 | 18 | 3.0 | 7.0 | 0.00 | 0.06 | 0.06 | 79 | 1019.8 |
| 20260501175009 | 66 | 19 | 3.0 | 7.0 | 0.00 | 0.06 | 0.06 | 79 | 1019.7 |
| 20260501174906 | 66 | 166 | 3.0 | 7.0 | 0.00 | 0.06 | 0.06 | 79 | 1019.7 |
| 20260501174806 | 66 | 111 | 3.0 | 7.0 | 0.00 | 0.06 | 0.06 | 79 | 1019.7 |
| 20260501174706 | 66 | 53 | 3.0 | 7.0 | 0.00 | 0.06 | 0.06 | 79 | 1019.7 |
| 20260501174507 | 67 | 60 | 2.0 | 7.0 | 0.00 | 0.06 | 0.06 | 79 | 1019.6 |
| 20260501174306 | 67 | 42 | 2.0 | 5.0 | 0.00 | 0.06 | 0.06 | 79 | 1019.6 |
| 20260501174207 | 67 | 71 | 2.0 | 6.0 | 0.00 | 0.06 | 0.06 | 79 | 1019.6 |
| 20260501174106 | 67 | 77 | 2.0 | 6.0 | 0.00 | 0.06 | 0.06 | 80 | 1019.6 |
| 20260501174012 | 67 | 66 | 2.0 | 6.0 | 0.00 | 0.06 | 0.06 | 80 | 1019.7 |
| 20260501173906 | 67 | 66 | 2.0 | 6.0 | 0.00 | 0.06 | 0.06 | 79 | 1019.7 |
| 20260501173806 | 67 | 66 | 2.0 | 5.0 | 0.00 | 0.06 | 0.06 | 80 | 1019.6 |
| 20260501173707 | 67 | 15 | 2.0 | 5.0 | 0.00 | 0.06 | 0.06 | 80 | 1019.6 |
| 20260501173606 | 67 | 15 | 3.0 | 5.0 | 0.00 | 0.06 | 0.06 | 80 | 1019.6 |
| 20260501173509 | 67 | 15 | 3.0 | 5.0 | 0.00 | 0.06 | 0.06 | 80 | 1019.6 |
| 20260501173407 | 67 | 313 | 3.0 | 5.0 | 0.00 | 0.06 | 0.06 | 80 | 1019.6 |
| 20260501173306 | 67 | 103 | 3.0 | 5.0 | 0.00 | 0.06 | 0.06 | 80 | 1019.7 |
| 20260501173106 | 67 | 48 | 3.0 | 5.0 | 0.00 | 0.06 | 0.06 | 79 | 1019.7 |
| 20260501172906 | 67 | 39 | 3.0 | 5.0 | 0.00 | 0.06 | 0.06 | 79 | 1019.6 |
| 20260501172706 | 67 | 50 | 2.0 | 5.0 | 0.00 | 0.06 | 0.06 | 79 | 1019.6 |
| 20260501172608 | 67 | 59 | 2.0 | 5.0 | 0.00 | 0.06 | 0.06 | 79 | 1019.6 |
| 20260501172507 | 67 | 70 | 2.0 | 5.0 | 0.00 | 0.06 | 0.06 | 79 | 1019.6 |
| 20260501172406 | 67 | 20 | 2.0 | 6.0 | 0.00 | 0.06 | 0.06 | 79 | 1019.5 |
| 20260501172306 | 67 | 75 | 2.0 | 7.0 | 0.00 | 0.06 | 0.06 | 79 | 1019.5 |
| 20260501172205 | 67 | 75 | 2.0 | 8.0 | 0.00 | 0.06 | 0.06 | 79 | 1019.5 |
| 20260501172105 | 67 | 69 | 2.0 | 8.0 | 0.00 | 0.06 | 0.06 | 79 | 1019.5 |
| 20260501171807 | 67 | 134 | 2.0 | 8.0 | 0.00 | 0.06 | 0.06 | 79 | 1019.5 |
| 20260501171706 | 67 | 306 | 2.0 | 8.0 | 0.00 | 0.06 | 0.06 | 79 | 1019.5 |
| 20260501171606 | 67 | 253 | 3.0 | 8.0 | 0.00 | 0.06 | 0.06 | 79 | 1019.5 |
| 20260501171507 | 67 | 85 | 3.0 | 8.0 | 0.00 | 0.06 | 0.06 | 79 | 1019.5 |
| 20260501171406 | 67 | 96 | 3.0 | 8.0 | 0.00 | 0.06 | 0.06 | 79 | 1019.5 |
| 20260501171306 | 67 | 39 | 3.0 | 8.0 | 0.00 | 0.06 | 0.06 | 79 | 1019.4 |
| 20260501171208 | 67 | 290 | 3.0 | 8.0 | 0.00 | 0.06 | 0.06 | 79 | 1019.4 |
| 20260501171105 | 67 | 45 | 3.0 | 8.0 | 0.00 | 0.06 | 0.06 | 79 | 1019.4 |
| 20260501171008 | 67 | 37 | 3.0 | 8.0 | 0.00 | 0.06 | 0.06 | 79 | 1019.3 |
| 20260501170807 | 67 | 50 | 3.0 | 8.0 | 0.00 | 0.06 | 0.06 | 80 | 1019.4 |
| 20260501170607 | 67 | 129 | 3.0 | 8.0 | 0.00 | 0.06 | 0.06 | 80 | 1019.3 |
| 20260501170406 | 67 | 42 | 2.0 | 7.0 | 0.00 | 0.06 | 0.06 | 80 | 1019.3 |
| 20260501170306 | 67 | 299 | 3.0 | 7.0 | 0.00 | 0.06 | 0.06 | 80 | 1019.3 |
| 20260501170205 | 67 | 8 | 3.0 | 7.0 | 0.00 | 0.06 | 0.06 | 80 | 1019.4 |
| 20260501170106 | 67 | 79 | 3.0 | 10.0 | 0.00 | 0.06 | 0.06 | 80 | 1019.4 |
| 20260501170010 | 67 | 54 | 3.0 | 10.0 | 0.00 | 0.06 | 0.06 | 80 | 1019.3 |
| 20260501165808 | 67 | 358 | 3.0 | 10.0 | 0.00 | 0.06 | 0.06 | 80 | 1019.4 |
| 20260501165706 | 67 | 307 | 4.0 | 10.0 | 0.00 | 0.06 | 0.06 | 80 | 1019.3 |
| 20260501165606 | 67 | 36 | 3.0 | 10.0 | 0.00 | 0.06 | 0.06 | 80 | 1019.3 |
| 20260501165507 | 67 | 335 | 3.0 | 10.0 | 0.00 | 0.06 | 0.06 | 80 | 1019.4 |
| 20260501165306 | 67 | 26 | 4.0 | 10.0 | 0.00 | 0.06 | 0.06 | 80 | 1019.5 |
| 20260501165206 | 67 | 56 | 3.0 | 10.0 | 0.00 | 0.06 | 0.06 | 80 | 1019.4 |
| 20260501165105 | 67 | 330 | 3.0 | 10.0 | 0.00 | 0.06 | 0.06 | 79 | 1019.4 |
| 20260501165008 | 67 | 23 | 3.0 | 10.0 | 0.00 | 0.06 | 0.06 | 79 | 1019.4 |
| 20260501164908 | 67 | 52 | 3.0 | 10.0 | 0.00 | 0.06 | 0.06 | 79 | 1019.5 |
| 20260501164808 | 67 | 32 | 3.0 | 8.0 | 0.00 | 0.06 | 0.06 | 79 | 1019.5 |
| 20260501164705 | 67 | 44 | 2.0 | 6.0 | 0.00 | 0.06 | 0.06 | 80 | 1019.4 |
| 20260501164607 | 67 | 44 | 3.0 | 6.0 | 0.00 | 0.06 | 0.06 | 79 | 1019.3 |
| 20260501164508 | 67 | 66 | 3.0 | 6.0 | 0.00 | 0.06 | 0.06 | 79 | 1019.3 |
| 20260501164406 | 67 | 27 | 3.0 | 9.0 | 0.00 | 0.06 | 0.06 | 79 | 1019.4 |
| 20260501164206 | 67 | 117 | 4.0 | 9.0 | 0.00 | 0.06 | 0.06 | 79 | 1019.3 |